Wetterdaten: Freitag, 12.12.2025
Datum Zeit Temp. I. Temp. A. Feuchte I. Feuchte A. Luftdruck Regen Wind Richtung Richtung Sonnenschein Solar Taupunkt Windchill Windböen
12.12.2025 00:00 21,8 °C 1,1 °C 54 % 91 % 1023,7 hPa 0,0 l/m² 0,0 km/h (0 Bft) N-NO 31 ° 0 min 0 W/m² -0,2 °C 1,1 °C 0,0 km/h (0 Bft)
12.12.2025 00:01 21,8 °C 1,1 °C 54 % 91 % 1023,7 hPa 0,0 l/m² 0,0 km/h (0 Bft) N-NO 31 ° 0 min 0 W/m² -0,2 °C 1,1 °C 0,0 km/h (0 Bft)
12.12.2025 00:02 21,8 °C 1,1 °C 54 % 91 % 1023,6 hPa 0,0 l/m² 0,0 km/h (0 Bft) N-NO 31 ° 0 min 0 W/m² -0,2 °C 1,1 °C 0,0 km/h (0 Bft)
12.12.2025 00:03 21,8 °C 1,1 °C 54 % 91 % 1023,6 hPa 0,0 l/m² 0,0 km/h (0 Bft) N-NO 31 ° 0 min 0 W/m² -0,2 °C 1,1 °C 0,0 km/h (0 Bft)
12.12.2025 00:04 21,8 °C 1,1 °C 54 % 91 % 1023,6 hPa 0,0 l/m² 0,0 km/h (0 Bft) N-NO 31 ° 0 min 0 W/m² -0,2 °C 1,1 °C 0,0 km/h (0 Bft)
12.12.2025 00:06 21,8 °C 1,1 °C 54 % 91 % 1023,6 hPa 0,0 l/m² 0,0 km/h (0 Bft) N-NO 31 ° 0 min 0 W/m² -0,2 °C 1,1 °C 0,0 km/h (0 Bft)
12.12.2025 00:08 21,8 °C 1,1 °C 54 % 91 % 1023,7 hPa 0,0 l/m² 0,0 km/h (0 Bft) N-NO 31 ° 0 min 0 W/m² -0,2 °C 1,1 °C 0,0 km/h (0 Bft)
12.12.2025 00:10 21,8 °C 1,1 °C 54 % 91 % 1023,7 hPa 0,0 l/m² 0,0 km/h (0 Bft) N-NO 28 ° 0 min 0 W/m² -0,2 °C 1,1 °C 0,0 km/h (0 Bft)
12.12.2025 00:11 21,8 °C 1,1 °C 54 % 91 % 1023,7 hPa 0,0 l/m² 0,0 km/h (0 Bft) N 10 ° 0 min 0 W/m² -0,2 °C 1,1 °C 0,0 km/h (0 Bft)
12.12.2025 00:12 21,8 °C 1,1 °C 54 % 91 % 1023,6 hPa 0,0 l/m² 0,0 km/h (0 Bft) N 5 ° 0 min 0 W/m² -0,2 °C 1,1 °C 0,0 km/h (0 Bft)
12.12.2025 00:14 21,8 °C 1,1 °C 54 % 91 % 1023,6 hPa 0,0 l/m² 2,3 km/h (1 Bft) NW 324 ° 0 min 0 W/m² -0,2 °C 1,1 °C 6,4 km/h (2 Bft)
12.12.2025 00:16 21,8 °C 1,1 °C 54 % 91 % 1023,6 hPa 0,0 l/m² 0,3 km/h (0 Bft) NW 324 ° 0 min 0 W/m² -0,2 °C 1,1 °C 1,6 km/h (1 Bft)
12.12.2025 00:18 21,8 °C 1,2 °C 54 % 91 % 1023,6 hPa 0,0 l/m² 2,9 km/h (1 Bft) NW 324 ° 0 min 0 W/m² -0,1 °C 1,2 °C 4,8 km/h (1 Bft)
12.12.2025 00:20 21,8 °C 1,2 °C 54 % 91 % 1023,6 hPa 0,0 l/m² 0,6 km/h (0 Bft) W-NW 295 ° 0 min 0 W/m² -0,1 °C 1,2 °C 3,2 km/h (1 Bft)
12.12.2025 00:21 21,8 °C 1,2 °C 54 % 91 % 1023,5 hPa 0,0 l/m² 0,0 km/h (0 Bft) W 260 ° 0 min 0 W/m² -0,1 °C 1,2 °C 0,0 km/h (0 Bft)
12.12.2025 00:22 21,8 °C 1,2 °C 54 % 91 % 1023,6 hPa 0,0 l/m² 0,0 km/h (0 Bft) W 260 ° 0 min 0 W/m² -0,1 °C 1,2 °C 0,0 km/h (0 Bft)
12.12.2025 00:24 21,8 °C 1,2 °C 54 % 92 % 1023,5 hPa 0,0 l/m² 0,0 km/h (0 Bft) W 260 ° 0 min 0 W/m² 0,0 °C 1,2 °C 0,0 km/h (0 Bft)
12.12.2025 00:26 21,8 °C 1,3 °C 54 % 92 % 1023,5 hPa 0,0 l/m² 0,0 km/h (0 Bft) W 260 ° 0 min 0 W/m² 0,1 °C 1,3 °C 0,0 km/h (0 Bft)
12.12.2025 00:28 21,8 °C 1,3 °C 54 % 92 % 1023,6 hPa 0,0 l/m² 0,0 km/h (0 Bft) W 279 ° 0 min 0 W/m² 0,1 °C 1,3 °C 0,0 km/h (0 Bft)
12.12.2025 00:30 21,8 °C 1,4 °C 54 % 92 % 1023,5 hPa 0,0 l/m² 0,0 km/h (0 Bft) W 279 ° 0 min 0 W/m² 0,2 °C 1,4 °C 0,0 km/h (0 Bft)
12.12.2025 00:31 21,8 °C 1,4 °C 54 % 92 % 1023,5 hPa 0,0 l/m² 0,0 km/h (0 Bft) W 279 ° 0 min 0 W/m² 0,2 °C 1,4 °C 0,0 km/h (0 Bft)
12.12.2025 00:32 21,8 °C 1,4 °C 54 % 92 % 1023,5 hPa 0,0 l/m² 0,0 km/h (0 Bft) W 279 ° 0 min 0 W/m² 0,2 °C 1,4 °C 0,0 km/h (0 Bft)
12.12.2025 00:33 21,8 °C 1,4 °C 54 % 92 % 1023,5 hPa 0,0 l/m² 0,0 km/h (0 Bft) W-SW 240 ° 0 min 0 W/m² 0,2 °C 1,4 °C 0,0 km/h (0 Bft)
12.12.2025 00:36 21,8 °C 1,5 °C 54 % 92 % 1023,4 hPa 0,0 l/m² 0,0 km/h (0 Bft) W-SW 240 ° 0 min 0 W/m² 0,3 °C 1,5 °C 0,0 km/h (0 Bft)
12.12.2025 00:38 21,8 °C 1,6 °C 54 % 92 % 1023,4 hPa 0,0 l/m² 0,0 km/h (0 Bft) SW 235 ° 0 min 0 W/m² 0,4 °C 1,6 °C 0,0 km/h (0 Bft)
12.12.2025 00:40 21,8 °C 1,6 °C 54 % 92 % 1023,4 hPa 0,0 l/m² 0,0 km/h (0 Bft) SW 235 ° 0 min 0 W/m² 0,4 °C 1,6 °C 0,0 km/h (0 Bft)
12.12.2025 00:41 21,8 °C 1,6 °C 54 % 92 % 1023,4 hPa 0,0 l/m² 0,0 km/h (0 Bft) SW 235 ° 0 min 0 W/m² 0,4 °C 1,6 °C 0,0 km/h (0 Bft)
12.12.2025 00:42 21,8 °C 1,6 °C 54 % 92 % 1023,4 hPa 0,0 l/m² 0,0 km/h (0 Bft) SW 235 ° 0 min 0 W/m² 0,4 °C 1,6 °C 0,0 km/h (0 Bft)
12.12.2025 00:44 21,8 °C 1,5 °C 54 % 92 % 1023,4 hPa 0,0 l/m² 0,0 km/h (0 Bft) SW 235 ° 0 min 0 W/m² 0,3 °C 1,5 °C 0,0 km/h (0 Bft)
12.12.2025 00:45 21,8 °C 1,5 °C 54 % 92 % 1023,3 hPa 0,0 l/m² 0,0 km/h (0 Bft) SW 236 ° 0 min 0 W/m² 0,3 °C 1,5 °C 0,0 km/h (0 Bft)
12.12.2025 00:46 21,8 °C 1,4 °C 54 % 92 % 1023,3 hPa 0,0 l/m² 0,0 km/h (0 Bft) SW 236 ° 0 min 0 W/m² 0,2 °C 1,4 °C 0,0 km/h (0 Bft)
12.12.2025 00:48 21,8 °C 1,4 °C 54 % 92 % 1023,3 hPa 0,0 l/m² 0,0 km/h (0 Bft) SW 236 ° 0 min 0 W/m² 0,2 °C 1,4 °C 0,0 km/h (0 Bft)
12.12.2025 00:49 21,8 °C 1,4 °C 54 % 92 % 1023,4 hPa 0,0 l/m² 0,0 km/h (0 Bft) W-SW 239 ° 0 min 0 W/m² 0,2 °C 1,4 °C 0,0 km/h (0 Bft)
12.12.2025 00:51 21,8 °C 1,3 °C 54 % 92 % 1023,3 hPa 0,0 l/m² 0,0 km/h (0 Bft) W-SW 246 ° 0 min 0 W/m² 0,1 °C 1,3 °C 0,0 km/h (0 Bft)
12.12.2025 00:52 21,8 °C 1,3 °C 54 % 92 % 1023,3 hPa 0,0 l/m² 0,0 km/h (0 Bft) W-SW 246 ° 0 min 0 W/m² 0,1 °C 1,3 °C 0,0 km/h (0 Bft)
12.12.2025 00:54 21,8 °C 1,3 °C 54 % 92 % 1023,3 hPa 0,0 l/m² 0,0 km/h (0 Bft) W-SW 246 ° 0 min 0 W/m² 0,1 °C 1,3 °C 0,0 km/h (0 Bft)
12.12.2025 00:56 21,8 °C 1,3 °C 54 % 92 % 1023,3 hPa 0,0 l/m² 0,0 km/h (0 Bft) W-SW 246 ° 0 min 0 W/m² 0,1 °C 1,3 °C 0,0 km/h (0 Bft)
12.12.2025 00:58 21,8 °C 1,3 °C 54 % 92 % 1023,4 hPa 0,0 l/m² 0,0 km/h (0 Bft) W-SW 246 ° 0 min 0 W/m² 0,1 °C 1,3 °C 0,0 km/h (0 Bft)
12.12.2025 01:00 21,8 °C 1,3 °C 54 % 92 % 1023,3 hPa 0,0 l/m² 0,0 km/h (0 Bft) W-SW 246 ° 0 min 0 W/m² 0,1 °C 1,3 °C 0,0 km/h (0 Bft)
12.12.2025 01:01 21,8 °C 1,3 °C 54 % 92 % 1023,3 hPa 0,0 l/m² 0,0 km/h (0 Bft) W-SW 246 ° 0 min 0 W/m² 0,1 °C 1,3 °C 0,0 km/h (0 Bft)
12.12.2025 01:03 21,7 °C 1,2 °C 54 % 92 % 1023,4 hPa 0,0 l/m² 0,0 km/h (0 Bft) W-SW 246 ° 0 min 0 W/m² 0,0 °C 1,2 °C 0,0 km/h (0 Bft)
12.12.2025 01:05 21,8 °C 1,3 °C 54 % 92 % 1023,3 hPa 0,0 l/m² 0,0 km/h (0 Bft) W-SW 246 ° 0 min 0 W/m² 0,1 °C 1,3 °C 0,0 km/h (0 Bft)
12.12.2025 01:07 21,8 °C 1,3 °C 54 % 92 % 1023,3 hPa 0,0 l/m² 0,0 km/h (0 Bft) W-SW 246 ° 0 min 0 W/m² 0,1 °C 1,3 °C 0,0 km/h (0 Bft)
12.12.2025 01:09 21,8 °C 1,4 °C 54 % 92 % 1023,2 hPa 0,0 l/m² 1,6 km/h (1 Bft) S-SW 210 ° 0 min 0 W/m² 0,2 °C 1,4 °C 6,4 km/h (2 Bft)
12.12.2025 01:11 21,8 °C 1,4 °C 54 % 92 % 1023,2 hPa 0,0 l/m² 0,6 km/h (0 Bft) SW 222 ° 0 min 0 W/m² 0,2 °C 1,4 °C 4,8 km/h (1 Bft)
12.12.2025 01:12 21,7 °C 1,4 °C 54 % 92 % 1023,2 hPa 0,0 l/m² 3,7 km/h (1 Bft) SW 229 ° 0 min 0 W/m² 0,2 °C 1,4 °C 4,8 km/h (1 Bft)
12.12.2025 01:13 21,7 °C 1,4 °C 54 % 92 % 1023,2 hPa 0,0 l/m² 5,8 km/h (2 Bft) S-SW 212 ° 0 min 0 W/m² 0,2 °C 1,4 °C 8,0 km/h (2 Bft)
12.12.2025 01:15 21,8 °C 1,6 °C 54 % 92 % 1023,2 hPa 0,0 l/m² 6,3 km/h (2 Bft) S-SW 212 ° 0 min 0 W/m² 0,4 °C 1,6 °C 9,7 km/h (2 Bft)
12.12.2025 01:16 21,7 °C 1,6 °C 54 % 92 % 1023,2 hPa 0,0 l/m² 3,8 km/h (1 Bft) S-SW 197 ° 0 min 0 W/m² 0,4 °C 1,6 °C 8,0 km/h (2 Bft)
12.12.2025 01:17 21,7 °C 1,6 °C 54 % 93 % 1023,2 hPa 0,0 l/m² 3,7 km/h (1 Bft) SW 221 ° 0 min 0 W/m² 0,6 °C 1,6 °C 8,0 km/h (2 Bft)
12.12.2025 01:19 21,7 °C 1,7 °C 54 % 92 % 1023,3 hPa 0,0 l/m² 3,9 km/h (1 Bft) SW 229 ° 0 min 0 W/m² 0,5 °C 1,7 °C 6,4 km/h (2 Bft)
12.12.2025 01:21 21,8 °C 1,8 °C 54 % 92 % 1023,3 hPa 0,0 l/m² 2,7 km/h (1 Bft) SW 229 ° 0 min 0 W/m² 0,6 °C 1,8 °C 4,8 km/h (1 Bft)
12.12.2025 01:22 21,7 °C 1,8 °C 54 % 92 % 1023,4 hPa 0,0 l/m² 1,5 km/h (1 Bft) SW 229 ° 0 min 0 W/m² 0,6 °C 1,8 °C 4,8 km/h (1 Bft)
12.12.2025 01:23 21,7 °C 1,8 °C 54 % 92 % 1023,4 hPa 0,0 l/m² 3,8 km/h (1 Bft) W-SW 240 ° 0 min 0 W/m² 0,6 °C 1,8 °C 6,4 km/h (2 Bft)
12.12.2025 01:24 21,7 °C 1,8 °C 54 % 92 % 1023,3 hPa 0,0 l/m² 1,5 km/h (1 Bft) S-SW 207 ° 0 min 0 W/m² 0,6 °C 1,8 °C 6,4 km/h (2 Bft)
12.12.2025 01:26 21,7 °C 1,9 °C 54 % 92 % 1023,3 hPa 0,0 l/m² 6,4 km/h (2 Bft) S-SW 211 ° 0 min 0 W/m² 0,7 °C 1,9 °C 11,3 km/h (2 Bft)
12.12.2025 01:28 21,7 °C 1,9 °C 54 % 93 % 1023,3 hPa 0,0 l/m² 9,6 km/h (2 Bft) S-SW 209 ° 0 min 0 W/m² 0,9 °C -1,0 °C 12,9 km/h (3 Bft)
12.12.2025 01:30 21,7 °C 1,9 °C 54 % 93 % 1023,3 hPa 0,0 l/m² 10,2 km/h (2 Bft) S-SW 211 ° 0 min 0 W/m² 0,9 °C -1,5 °C 14,5 km/h (3 Bft)
12.12.2025 01:31 21,7 °C 2,0 °C 54 % 93 % 1023,3 hPa 0,0 l/m² 7,9 km/h (2 Bft) S-SW 202 ° 0 min 0 W/m² 1,0 °C 0,5 °C 9,7 km/h (2 Bft)
12.12.2025 01:32 21,7 °C 2,0 °C 54 % 93 % 1023,3 hPa 0,0 l/m² 6,6 km/h (2 Bft) S-SW 206 ° 0 min 0 W/m² 1,0 °C 1,8 °C 9,7 km/h (2 Bft)
12.12.2025 01:33 21,7 °C 2,1 °C 54 % 93 % 1023,2 hPa 0,0 l/m² 5,5 km/h (2 Bft) S-SW 212 ° 0 min 0 W/m² 1,1 °C 2,1 °C 9,7 km/h (2 Bft)
12.12.2025 01:35 21,7 °C 2,1 °C 54 % 93 % 1023,2 hPa 0,0 l/m² 6,8 km/h (2 Bft) S-SW 207 ° 0 min 0 W/m² 1,1 °C 1,7 °C 9,7 km/h (2 Bft)
12.12.2025 01:37 21,7 °C 2,1 °C 54 % 92 % 1023,3 hPa 0,0 l/m² 6,2 km/h (2 Bft) S-SW 205 ° 0 min 0 W/m² 0,9 °C 2,1 °C 8,0 km/h (2 Bft)
12.12.2025 01:39 21,7 °C 2,1 °C 54 % 92 % 1023,3 hPa 0,0 l/m² 5,0 km/h (1 Bft) S-SW 205 ° 0 min 0 W/m² 0,9 °C 2,1 °C 8,0 km/h (2 Bft)
12.12.2025 01:41 21,7 °C 2,1 °C 54 % 92 % 1023,2 hPa 0,0 l/m² 6,0 km/h (2 Bft) S-SW 205 ° 0 min 0 W/m² 0,9 °C 2,1 °C 8,0 km/h (2 Bft)
12.12.2025 01:42 21,7 °C 2,1 °C 54 % 92 % 1023,2 hPa 0,0 l/m² 5,5 km/h (2 Bft) S-SW 205 ° 0 min 0 W/m² 0,9 °C 2,1 °C 6,4 km/h (2 Bft)
12.12.2025 01:43 21,7 °C 2,1 °C 54 % 92 % 1023,2 hPa 0,0 l/m² 4,2 km/h (1 Bft) S-SW 205 ° 0 min 0 W/m² 0,9 °C 2,1 °C 4,8 km/h (1 Bft)
12.12.2025 01:44 21,7 °C 2,1 °C 54 % 92 % 1023,3 hPa 0,0 l/m² 4,8 km/h (1 Bft) S-SW 205 ° 0 min 0 W/m² 0,9 °C 2,1 °C 6,4 km/h (2 Bft)
12.12.2025 01:46 21,7 °C 2,1 °C 54 % 92 % 1023,3 hPa 0,0 l/m² 5,6 km/h (2 Bft) S-SW 196 ° 0 min 0 W/m² 0,9 °C 2,1 °C 6,4 km/h (2 Bft)
12.12.2025 01:48 21,7 °C 2,1 °C 54 % 92 % 1023,3 hPa 0,0 l/m² 4,6 km/h (1 Bft) S-SW 196 ° 0 min 0 W/m² 0,9 °C 2,1 °C 6,4 km/h (2 Bft)
12.12.2025 01:50 21,7 °C 2,1 °C 54 % 92 % 1023,3 hPa 0,0 l/m² 3,0 km/h (1 Bft) S-SW 196 ° 0 min 0 W/m² 0,9 °C 2,1 °C 4,8 km/h (1 Bft)
12.12.2025 01:51 21,7 °C 2,1 °C 54 % 93 % 1023,2 hPa 0,0 l/m² 2,6 km/h (1 Bft) S-SW 196 ° 0 min 0 W/m² 1,1 °C 2,1 °C 4,8 km/h (1 Bft)
12.12.2025 01:52 21,7 °C 2,0 °C 54 % 93 % 1023,3 hPa 0,0 l/m² 0,5 km/h (0 Bft) S-SW 196 ° 0 min 0 W/m² 1,0 °C 2,0 °C 3,2 km/h (1 Bft)
12.12.2025 01:54 21,7 °C 2,0 °C 54 % 93 % 1023,3 hPa 0,0 l/m² 0,0 km/h (0 Bft) S-SW 196 ° 0 min 0 W/m² 1,0 °C 2,0 °C 0,0 km/h (0 Bft)
12.12.2025 01:56 21,7 °C 2,0 °C 54 % 93 % 1023,3 hPa 0,0 l/m² 0,0 km/h (0 Bft) S-SW 195 ° 0 min 0 W/m² 1,0 °C 2,0 °C 0,0 km/h (0 Bft)
12.12.2025 01:58 21,7 °C 2,0 °C 54 % 93 % 1023,2 hPa 0,0 l/m² 0,0 km/h (0 Bft) S-SW 195 ° 0 min 0 W/m² 1,0 °C 2,0 °C 0,0 km/h (0 Bft)
12.12.2025 02:00 21,7 °C 2,0 °C 54 % 93 % 1023,3 hPa 0,0 l/m² 0,0 km/h (0 Bft) S-SW 195 ° 0 min 0 W/m² 1,0 °C 2,0 °C 0,0 km/h (0 Bft)
12.12.2025 02:01 21,7 °C 2,0 °C 54 % 93 % 1023,3 hPa 0,0 l/m² 0,0 km/h (0 Bft) S-SW 195 ° 0 min 0 W/m² 1,0 °C 2,0 °C 0,0 km/h (0 Bft)
12.12.2025 02:02 21,7 °C 1,9 °C 54 % 93 % 1023,3 hPa 0,0 l/m² 0,0 km/h (0 Bft) S-SW 195 ° 0 min 0 W/m² 0,9 °C 1,9 °C 0,0 km/h (0 Bft)
12.12.2025 02:03 21,7 °C 1,9 °C 54 % 93 % 1023,3 hPa 0,0 l/m² 0,0 km/h (0 Bft) S-SW 195 ° 0 min 0 W/m² 0,9 °C 1,9 °C 0,0 km/h (0 Bft)
12.12.2025 02:05 21,7 °C 1,9 °C 54 % 92 % 1023,3 hPa 0,0 l/m² 0,0 km/h (0 Bft) SO 144 ° 0 min 0 W/m² 0,7 °C 1,9 °C 0,0 km/h (0 Bft)
12.12.2025 02:07 21,7 °C 1,8 °C 54 % 92 % 1023,3 hPa 0,0 l/m² 0,0 km/h (0 Bft) SO 143 ° 0 min 0 W/m² 0,6 °C 1,8 °C 0,0 km/h (0 Bft)
12.12.2025 02:09 21,7 °C 1,9 °C 54 % 92 % 1023,3 hPa 0,0 l/m² 0,0 km/h (0 Bft) SO 143 ° 0 min 0 W/m² 0,7 °C 1,9 °C 0,0 km/h (0 Bft)
12.12.2025 02:11 21,7 °C 1,8 °C 54 % 92 % 1023,3 hPa 0,0 l/m² 0,0 km/h (0 Bft) SO 143 ° 0 min 0 W/m² 0,6 °C 1,8 °C 0,0 km/h (0 Bft)
12.12.2025 02:12 21,7 °C 1,8 °C 54 % 92 % 1023,3 hPa 0,0 l/m² 0,0 km/h (0 Bft) SO 143 ° 0 min 0 W/m² 0,6 °C 1,8 °C 0,0 km/h (0 Bft)
12.12.2025 02:13 21,7 °C 1,8 °C 54 % 92 % 1023,4 hPa 0,0 l/m² 0,0 km/h (0 Bft) SO 143 ° 0 min 0 W/m² 0,6 °C 1,8 °C 0,0 km/h (0 Bft)
12.12.2025 02:14 21,7 °C 1,8 °C 54 % 92 % 1023,3 hPa 0,0 l/m² 0,0 km/h (0 Bft) SO 143 ° 0 min 0 W/m² 0,6 °C 1,8 °C 0,0 km/h (0 Bft)
12.12.2025 02:16 21,7 °C 1,8 °C 54 % 92 % 1023,3 hPa 0,0 l/m² 0,0 km/h (0 Bft) SO 143 ° 0 min 0 W/m² 0,6 °C 1,8 °C 0,0 km/h (0 Bft)
12.12.2025 02:18 21,7 °C 1,7 °C 54 % 92 % 1023,3 hPa 0,0 l/m² 0,0 km/h (0 Bft) SO 143 ° 0 min 0 W/m² 0,5 °C 1,7 °C 0,0 km/h (0 Bft)
12.12.2025 02:20 21,7 °C 1,7 °C 54 % 92 % 1023,4 hPa 0,0 l/m² 0,0 km/h (0 Bft) SO 143 ° 0 min 0 W/m² 0,5 °C 1,7 °C 0,0 km/h (0 Bft)
12.12.2025 02:21 21,7 °C 1,7 °C 54 % 92 % 1023,4 hPa 0,0 l/m² 0,0 km/h (0 Bft) SO 143 ° 0 min 0 W/m² 0,5 °C 1,7 °C 0,0 km/h (0 Bft)
12.12.2025 02:22 21,7 °C 1,7 °C 54 % 92 % 1023,4 hPa 0,0 l/m² 0,0 km/h (0 Bft) SO 143 ° 0 min 0 W/m² 0,5 °C 1,7 °C 0,0 km/h (0 Bft)
12.12.2025 02:23 21,7 °C 1,6 °C 54 % 92 % 1023,3 hPa 0,0 l/m² 0,0 km/h (0 Bft) SO 143 ° 0 min 0 W/m² 0,4 °C 1,6 °C 0,0 km/h (0 Bft)
12.12.2025 02:25 21,6 °C 1,6 °C 54 % 93 % 1023,3 hPa 0,0 l/m² 0,0 km/h (0 Bft) SO 143 ° 0 min 0 W/m² 0,6 °C 1,6 °C 0,0 km/h (0 Bft)
12.12.2025 02:27 21,6 °C 1,6 °C 54 % 93 % 1023,3 hPa 0,0 l/m² 0,0 km/h (0 Bft) SO 143 ° 0 min 0 W/m² 0,6 °C 1,6 °C 0,0 km/h (0 Bft)
12.12.2025 02:29 21,6 °C 1,6 °C 54 % 92 % 1023,4 hPa 0,0 l/m² 0,0 km/h (0 Bft) SO 143 ° 0 min 0 W/m² 0,4 °C 1,6 °C 0,0 km/h (0 Bft)
12.12.2025 02:31 21,6 °C 1,6 °C 54 % 93 % 1023,3 hPa 0,0 l/m² 0,0 km/h (0 Bft) SO 143 ° 0 min 0 W/m² 0,6 °C 1,6 °C 0,0 km/h (0 Bft)
12.12.2025 02:32 21,6 °C 1,5 °C 54 % 93 % 1023,3 hPa 0,0 l/m² 0,0 km/h (0 Bft) SO 143 ° 0 min 0 W/m² 0,5 °C 1,5 °C 0,0 km/h (0 Bft)
12.12.2025 02:33 21,6 °C 1,5 °C 54 % 92 % 1023,3 hPa 0,0 l/m² 0,0 km/h (0 Bft) SO 143 ° 0 min 0 W/m² 0,3 °C 1,5 °C 0,0 km/h (0 Bft)
12.12.2025 02:34 21,6 °C 1,5 °C 54 % 92 % 1023,3 hPa 0,0 l/m² 0,0 km/h (0 Bft) SO 143 ° 0 min 0 W/m² 0,3 °C 1,5 °C 0,0 km/h (0 Bft)
12.12.2025 02:36 21,6 °C 1,4 °C 54 % 92 % 1023,4 hPa 0,0 l/m² 0,0 km/h (0 Bft) SO 143 ° 0 min 0 W/m² 0,2 °C 1,4 °C 0,0 km/h (0 Bft)
12.12.2025 02:38 21,6 °C 1,3 °C 54 % 92 % 1023,3 hPa 0,0 l/m² 0,0 km/h (0 Bft) SO 143 ° 0 min 0 W/m² 0,1 °C 1,3 °C 0,0 km/h (0 Bft)
12.12.2025 02:40 21,6 °C 1,3 °C 54 % 92 % 1023,4 hPa 0,0 l/m² 0,0 km/h (0 Bft) SO 143 ° 0 min 0 W/m² 0,1 °C 1,3 °C 0,0 km/h (0 Bft)
12.12.2025 02:41 21,6 °C 1,2 °C 54 % 92 % 1023,3 hPa 0,0 l/m² 0,0 km/h (0 Bft) SO 143 ° 0 min 0 W/m² 0,0 °C 1,2 °C 0,0 km/h (0 Bft)
12.12.2025 02:42 21,6 °C 1,2 °C 54 % 92 % 1023,3 hPa 0,0 l/m² 0,0 km/h (0 Bft) SO 143 ° 0 min 0 W/m² 0,0 °C 1,2 °C 0,0 km/h (0 Bft)
12.12.2025 02:43 21,6 °C 1,2 °C 54 % 92 % 1023,3 hPa 0,0 l/m² 0,0 km/h (0 Bft) SO 143 ° 0 min 0 W/m² 0,0 °C 1,2 °C 0,0 km/h (0 Bft)
12.12.2025 02:45 21,6 °C 1,2 °C 54 % 92 % 1023,3 hPa 0,0 l/m² 0,0 km/h (0 Bft) SO 143 ° 0 min 0 W/m² 0,0 °C 1,2 °C 0,0 km/h (0 Bft)
12.12.2025 02:47 21,6 °C 1,2 °C 54 % 92 % 1023,4 hPa 0,0 l/m² 0,0 km/h (0 Bft) SO 143 ° 0 min 0 W/m² 0,0 °C 1,2 °C 0,0 km/h (0 Bft)
12.12.2025 02:49 21,6 °C 1,1 °C 54 % 92 % 1023,4 hPa 0,0 l/m² 0,0 km/h (0 Bft) SO 143 ° 0 min 0 W/m² -0,1 °C 1,1 °C 0,0 km/h (0 Bft)
12.12.2025 02:51 21,6 °C 1,1 °C 54 % 92 % 1023,4 hPa 0,0 l/m² 0,0 km/h (0 Bft) SO 143 ° 0 min 0 W/m² -0,1 °C 1,1 °C 0,0 km/h (0 Bft)
12.12.2025 02:52 21,6 °C 1,1 °C 54 % 92 % 1023,2 hPa 0,0 l/m² 0,0 km/h (0 Bft) SO 143 ° 0 min 0 W/m² -0,1 °C 1,1 °C 0,0 km/h (0 Bft)
12.12.2025 02:53 21,6 °C 1,0 °C 54 % 92 % 1023,2 hPa 0,0 l/m² 0,0 km/h (0 Bft) SO 143 ° 0 min 0 W/m² -0,2 °C 1,0 °C 0,0 km/h (0 Bft)
12.12.2025 02:54 21,6 °C 1,0 °C 54 % 92 % 1023,2 hPa 0,0 l/m² 0,0 km/h (0 Bft) SO 143 ° 0 min 0 W/m² -0,2 °C 1,0 °C 0,0 km/h (0 Bft)
12.12.2025 02:56 21,6 °C 1,0 °C 54 % 92 % 1023,3 hPa 0,0 l/m² 0,0 km/h (0 Bft) SO 143 ° 0 min 0 W/m² -0,2 °C 1,0 °C 0,0 km/h (0 Bft)
12.12.2025 02:58 21,6 °C 0,9 °C 54 % 92 % 1023,2 hPa 0,0 l/m² 0,0 km/h (0 Bft) SO 143 ° 0 min 0 W/m² -0,2 °C 0,9 °C 0,0 km/h (0 Bft)
12.12.2025 03:00 21,6 °C 0,9 °C 54 % 92 % 1023,2 hPa 0,0 l/m² 0,0 km/h (0 Bft) SO 143 ° 0 min 0 W/m² -0,2 °C 0,9 °C 0,0 km/h (0 Bft)
12.12.2025 03:01 21,6 °C 0,9 °C 54 % 92 % 1023,2 hPa 0,0 l/m² 0,0 km/h (0 Bft) SO 143 ° 0 min 0 W/m² -0,2 °C 0,9 °C 0,0 km/h (0 Bft)
12.12.2025 03:02 21,6 °C 0,9 °C 54 % 92 % 1023,2 hPa 0,0 l/m² 0,0 km/h (0 Bft) SO 143 ° 0 min 0 W/m² -0,2 °C 0,9 °C 0,0 km/h (0 Bft)
12.12.2025 03:03 21,6 °C 0,8 °C 54 % 92 % 1023,2 hPa 0,0 l/m² 0,0 km/h (0 Bft) SO 143 ° 0 min 0 W/m² -0,3 °C 0,8 °C 0,0 km/h (0 Bft)
12.12.2025 03:04 21,6 °C 0,8 °C 54 % 92 % 1023,1 hPa 0,0 l/m² 0,0 km/h (0 Bft) SO 143 ° 0 min 0 W/m² -0,3 °C 0,8 °C 0,0 km/h (0 Bft)
12.12.2025 03:05 21,6 °C 0,8 °C 54 % 92 % 1023,2 hPa 0,0 l/m² 0,0 km/h (0 Bft) SO 143 ° 0 min 0 W/m² -0,3 °C 0,8 °C 0,0 km/h (0 Bft)
12.12.2025 03:06 21,6 °C 0,8 °C 54 % 92 % 1023,2 hPa 0,0 l/m² 0,0 km/h (0 Bft) SO 143 ° 0 min 0 W/m² -0,3 °C 0,8 °C 0,0 km/h (0 Bft)
12.12.2025 03:07 21,6 °C 0,8 °C 54 % 92 % 1023,2 hPa 0,0 l/m² 0,0 km/h (0 Bft) SO 143 ° 0 min 0 W/m² -0,3 °C 0,8 °C 0,0 km/h (0 Bft)
12.12.2025 03:08 21,6 °C 0,8 °C 54 % 92 % 1023,2 hPa 0,0 l/m² 0,0 km/h (0 Bft) SO 143 ° 0 min 0 W/m² -0,3 °C 0,8 °C 0,0 km/h (0 Bft)
12.12.2025 03:09 21,6 °C 0,8 °C 54 % 92 % 1023,2 hPa 0,0 l/m² 0,0 km/h (0 Bft) SO 143 ° 0 min 0 W/m² -0,3 °C 0,8 °C 0,0 km/h (0 Bft)
12.12.2025 03:10 21,6 °C 0,8 °C 54 % 92 % 1023,2 hPa 0,0 l/m² 0,0 km/h (0 Bft) SO 143 ° 0 min 0 W/m² -0,3 °C 0,8 °C 0,0 km/h (0 Bft)
12.12.2025 03:12 21,6 °C 0,7 °C 54 % 92 % 1023,2 hPa 0,0 l/m² 0,0 km/h (0 Bft) SO 143 ° 0 min 0 W/m² -0,4 °C 0,7 °C 0,0 km/h (0 Bft)
12.12.2025 03:14 21,6 °C 0,7 °C 54 % 92 % 1023,2 hPa 0,0 l/m² 0,0 km/h (0 Bft) SO 143 ° 0 min 0 W/m² -0,4 °C 0,7 °C 0,0 km/h (0 Bft)
12.12.2025 03:15 21,6 °C 0,7 °C 54 % 92 % 1023,2 hPa 0,0 l/m² 0,0 km/h (0 Bft) SO 143 ° 0 min 0 W/m² -0,4 °C 0,7 °C 0,0 km/h (0 Bft)
12.12.2025 03:16 21,6 °C 0,7 °C 54 % 92 % 1023,3 hPa 0,0 l/m² 0,0 km/h (0 Bft) SO 143 ° 0 min 0 W/m² -0,4 °C 0,7 °C 0,0 km/h (0 Bft)
12.12.2025 03:17 21,6 °C 0,7 °C 54 % 92 % 1023,3 hPa 0,0 l/m² 0,0 km/h (0 Bft) SO 143 ° 0 min 0 W/m² -0,4 °C 0,7 °C 0,0 km/h (0 Bft)
12.12.2025 03:18 21,6 °C 0,7 °C 54 % 92 % 1023,2 hPa 0,0 l/m² 0,0 km/h (0 Bft) SO 143 ° 0 min 0 W/m² -0,4 °C 0,7 °C 0,0 km/h (0 Bft)
12.12.2025 03:19 21,6 °C 0,6 °C 54 % 92 % 1023,2 hPa 0,0 l/m² 0,0 km/h (0 Bft) SO 143 ° 0 min 0 W/m² -0,5 °C 0,6 °C 0,0 km/h (0 Bft)
12.12.2025 03:20 21,6 °C 0,6 °C 54 % 92 % 1023,3 hPa 0,0 l/m² 0,0 km/h (0 Bft) SO 143 ° 0 min 0 W/m² -0,5 °C 0,6 °C 0,0 km/h (0 Bft)
12.12.2025 03:22 21,6 °C 0,6 °C 54 % 92 % 1023,3 hPa 0,0 l/m² 0,0 km/h (0 Bft) SO 143 ° 0 min 0 W/m² -0,5 °C 0,6 °C 0,0 km/h (0 Bft)
12.12.2025 03:24 21,6 °C 0,5 °C 54 % 92 % 1023,2 hPa 0,0 l/m² 0,0 km/h (0 Bft) SO 143 ° 0 min 0 W/m² -0,6 °C 0,5 °C 0,0 km/h (0 Bft)
12.12.2025 03:25 21,6 °C 0,5 °C 54 % 92 % 1023,2 hPa 0,0 l/m² 0,0 km/h (0 Bft) SO 143 ° 0 min 0 W/m² -0,6 °C 0,5 °C 0,0 km/h (0 Bft)
12.12.2025 03:26 21,6 °C 0,4 °C 54 % 92 % 1023,2 hPa 0,0 l/m² 0,0 km/h (0 Bft) SO 143 ° 0 min 0 W/m² -0,7 °C 0,4 °C 0,0 km/h (0 Bft)
12.12.2025 03:27 21,6 °C 0,4 °C 54 % 92 % 1023,2 hPa 0,0 l/m² 0,0 km/h (0 Bft) SO 143 ° 0 min 0 W/m² -0,7 °C 0,4 °C 0,0 km/h (0 Bft)
12.12.2025 03:28 21,6 °C 0,4 °C 54 % 92 % 1023,2 hPa 0,0 l/m² 0,0 km/h (0 Bft) SO 143 ° 0 min 0 W/m² -0,7 °C 0,4 °C 0,0 km/h (0 Bft)
12.12.2025 03:29 21,6 °C 0,4 °C 54 % 92 % 1023,2 hPa 0,0 l/m² 0,0 km/h (0 Bft) SO 143 ° 0 min 0 W/m² -0,7 °C 0,4 °C 0,0 km/h (0 Bft)
12.12.2025 03:30 21,6 °C 0,4 °C 54 % 92 % 1023,2 hPa 0,0 l/m² 0,0 km/h (0 Bft) SO 143 ° 0 min 0 W/m² -0,7 °C 0,4 °C 0,0 km/h (0 Bft)
12.12.2025 03:32 21,6 °C 0,3 °C 54 % 92 % 1023,1 hPa 0,0 l/m² 0,0 km/h (0 Bft) SO 143 ° 0 min 0 W/m² -0,8 °C 0,3 °C 0,0 km/h (0 Bft)
12.12.2025 03:34 21,6 °C 0,3 °C 54 % 92 % 1023,1 hPa 0,0 l/m² 0,0 km/h (0 Bft) SO 143 ° 0 min 0 W/m² -0,8 °C 0,3 °C 0,0 km/h (0 Bft)
12.12.2025 03:35 21,6 °C 0,3 °C 54 % 92 % 1023,1 hPa 0,0 l/m² 0,0 km/h (0 Bft) SO 143 ° 0 min 0 W/m² -0,8 °C 0,3 °C 0,0 km/h (0 Bft)
12.12.2025 03:36 21,6 °C 0,3 °C 54 % 92 % 1023,1 hPa 0,0 l/m² 0,0 km/h (0 Bft) SO 143 ° 0 min 0 W/m² -0,8 °C 0,3 °C 0,0 km/h (0 Bft)
12.12.2025 03:37 21,6 °C 0,3 °C 54 % 92 % 1023,1 hPa 0,0 l/m² 0,0 km/h (0 Bft) SO 143 ° 0 min 0 W/m² -0,8 °C 0,3 °C 0,0 km/h (0 Bft)
12.12.2025 03:38 21,6 °C 0,3 °C 54 % 92 % 1023,1 hPa 0,0 l/m² 0,0 km/h (0 Bft) SO 143 ° 0 min 0 W/m² -0,8 °C 0,3 °C 0,0 km/h (0 Bft)
12.12.2025 03:39 21,6 °C 0,3 °C 54 % 92 % 1023,1 hPa 0,0 l/m² 0,0 km/h (0 Bft) SO 143 ° 0 min 0 W/m² -0,8 °C 0,3 °C 0,0 km/h (0 Bft)
12.12.2025 03:40 21,6 °C 0,3 °C 54 % 92 % 1023,1 hPa 0,0 l/m² 0,0 km/h (0 Bft) SO 143 ° 0 min 0 W/m² -0,8 °C 0,3 °C 0,0 km/h (0 Bft)
12.12.2025 03:42 21,6 °C 0,3 °C 54 % 92 % 1023,1 hPa 0,0 l/m² 0,0 km/h (0 Bft) SO 143 ° 0 min 0 W/m² -0,8 °C 0,3 °C 0,0 km/h (0 Bft)
12.12.2025 03:44 21,6 °C 0,2 °C 54 % 92 % 1023,1 hPa 0,0 l/m² 0,0 km/h (0 Bft) SO 143 ° 0 min 0 W/m² -0,9 °C 0,2 °C 0,0 km/h (0 Bft)
12.12.2025 03:45 21,6 °C 0,2 °C 54 % 92 % 1023,1 hPa 0,0 l/m² 0,0 km/h (0 Bft) SO 143 ° 0 min 0 W/m² -0,9 °C 0,2 °C 0,0 km/h (0 Bft)
12.12.2025 03:47 21,5 °C 0,2 °C 54 % 92 % 1023,1 hPa 0,0 l/m² 0,0 km/h (0 Bft) SO 143 ° 0 min 0 W/m² -0,9 °C 0,2 °C 0,0 km/h (0 Bft)
12.12.2025 03:48 21,6 °C 0,2 °C 54 % 92 % 1023,1 hPa 0,0 l/m² 0,0 km/h (0 Bft) SO 143 ° 0 min 0 W/m² -0,9 °C 0,2 °C 0,0 km/h (0 Bft)
12.12.2025 03:49 21,6 °C 0,2 °C 54 % 92 % 1023,1 hPa 0,0 l/m² 0,0 km/h (0 Bft) SO 143 ° 0 min 0 W/m² -0,9 °C 0,2 °C 0,0 km/h (0 Bft)
12.12.2025 03:50 21,6 °C 0,2 °C 54 % 92 % 1023,1 hPa 0,0 l/m² 0,0 km/h (0 Bft) SO 143 ° 0 min 0 W/m² -0,9 °C 0,2 °C 0,0 km/h (0 Bft)
12.12.2025 03:52 21,6 °C 0,1 °C 54 % 92 % 1023,2 hPa 0,0 l/m² 0,0 km/h (0 Bft) SO 143 ° 0 min 0 W/m² -1,0 °C 0,1 °C 0,0 km/h (0 Bft)
12.12.2025 03:54 21,6 °C 0,2 °C 54 % 92 % 1023,1 hPa 0,0 l/m² 0,0 km/h (0 Bft) SO 143 ° 0 min 0 W/m² -0,9 °C 0,2 °C 0,0 km/h (0 Bft)
12.12.2025 03:55 21,6 °C 0,1 °C 54 % 92 % 1023,2 hPa 0,0 l/m² 0,0 km/h (0 Bft) SO 143 ° 0 min 0 W/m² -1,0 °C 0,1 °C 0,0 km/h (0 Bft)
12.12.2025 03:56 21,6 °C 0,1 °C 54 % 92 % 1023,2 hPa 0,0 l/m² 0,0 km/h (0 Bft) SO 143 ° 0 min 0 W/m² -1,0 °C 0,1 °C 0,0 km/h (0 Bft)
12.12.2025 03:57 21,6 °C 0,1 °C 54 % 92 % 1023,2 hPa 0,0 l/m² 0,0 km/h (0 Bft) SO 143 ° 0 min 0 W/m² -1,0 °C 0,1 °C 0,0 km/h (0 Bft)
12.12.2025 03:58 21,6 °C 0,1 °C 54 % 92 % 1023,2 hPa 0,0 l/m² 0,0 km/h (0 Bft) SO 143 ° 0 min 0 W/m² -1,0 °C 0,1 °C 0,0 km/h (0 Bft)
12.12.2025 03:59 21,6 °C 0,0 °C 54 % 92 % 1023,2 hPa 0,0 l/m² 0,0 km/h (0 Bft) SO 143 ° 0 min 0 W/m² -1,1 °C 0,0 °C 0,0 km/h (0 Bft)
12.12.2025 04:00 21,6 °C 0,0 °C 54 % 92 % 1023,2 hPa 0,0 l/m² 0,0 km/h (0 Bft) SO 143 ° 0 min 0 W/m² -1,1 °C 0,0 °C 0,0 km/h (0 Bft)
12.12.2025 04:02 21,6 °C -0,1 °C 54 % 92 % 1023,2 hPa 0,0 l/m² 0,0 km/h (0 Bft) SO 143 ° 0 min 0 W/m² -1,2 °C -0,1 °C 0,0 km/h (0 Bft)
12.12.2025 04:04 21,6 °C -0,1 °C 54 % 92 % 1023,2 hPa 0,0 l/m² 0,0 km/h (0 Bft) SO 143 ° 0 min 0 W/m² -1,2 °C -0,1 °C 0,0 km/h (0 Bft)
12.12.2025 04:05 21,6 °C -0,1 °C 54 % 92 % 1023,1 hPa 0,0 l/m² 0,0 km/h (0 Bft) SO 143 ° 0 min 0 W/m² -1,2 °C -0,1 °C 0,0 km/h (0 Bft)
12.12.2025 04:06 21,6 °C -0,1 °C 54 % 92 % 1023,1 hPa 0,0 l/m² 0,0 km/h (0 Bft) SO 143 ° 0 min 0 W/m² -1,2 °C -0,1 °C 0,0 km/h (0 Bft)
12.12.2025 04:07 21,6 °C -0,1 °C 54 % 92 % 1023,2 hPa 0,0 l/m² 0,0 km/h (0 Bft) SO 143 ° 0 min 0 W/m² -1,2 °C -0,1 °C 0,0 km/h (0 Bft)
12.12.2025 04:08 21,6 °C -0,2 °C 54 % 92 % 1023,2 hPa 0,0 l/m² 0,0 km/h (0 Bft) SO 143 ° 0 min 0 W/m² -1,3 °C -0,2 °C 0,0 km/h (0 Bft)
12.12.2025 04:09 21,6 °C -0,2 °C 54 % 92 % 1023,2 hPa 0,0 l/m² 0,0 km/h (0 Bft) SO 143 ° 0 min 0 W/m² -1,3 °C -0,2 °C 0,0 km/h (0 Bft)
12.12.2025 04:10 21,6 °C -0,2 °C 54 % 92 % 1023,2 hPa 0,0 l/m² 0,0 km/h (0 Bft) SO 143 ° 0 min 0 W/m² -1,3 °C -0,2 °C 0,0 km/h (0 Bft)
12.12.2025 04:12 21,6 °C -0,2 °C 54 % 92 % 1023,3 hPa 0,0 l/m² 0,0 km/h (0 Bft) SO 143 ° 0 min 0 W/m² -1,3 °C -0,2 °C 0,0 km/h (0 Bft)
12.12.2025 04:14 21,6 °C -0,2 °C 54 % 92 % 1023,2 hPa 0,0 l/m² 0,0 km/h (0 Bft) SO 143 ° 0 min 0 W/m² -1,3 °C -0,2 °C 0,0 km/h (0 Bft)
12.12.2025 04:15 21,6 °C -0,2 °C 54 % 92 % 1023,2 hPa 0,0 l/m² 0,0 km/h (0 Bft) SO 143 ° 0 min 0 W/m² -1,3 °C -0,2 °C 0,0 km/h (0 Bft)
12.12.2025 04:16 21,6 °C -0,3 °C 54 % 92 % 1023,1 hPa 0,0 l/m² 0,0 km/h (0 Bft) SO 143 ° 0 min 0 W/m² -1,4 °C -0,3 °C 0,0 km/h (0 Bft)
12.12.2025 04:17 21,6 °C -0,3 °C 54 % 92 % 1023,2 hPa 0,0 l/m² 0,0 km/h (0 Bft) SO 143 ° 0 min 0 W/m² -1,4 °C -0,3 °C 0,0 km/h (0 Bft)
12.12.2025 04:18 21,6 °C -0,3 °C 54 % 92 % 1023,1 hPa 0,0 l/m² 0,0 km/h (0 Bft) SO 143 ° 0 min 0 W/m² -1,4 °C -0,3 °C 0,0 km/h (0 Bft)
12.12.2025 04:19 21,6 °C -0,3 °C 54 % 92 % 1023,2 hPa 0,0 l/m² 0,0 km/h (0 Bft) SO 143 ° 0 min 0 W/m² -1,4 °C -0,3 °C 0,0 km/h (0 Bft)
12.12.2025 04:20 21,6 °C -0,3 °C 54 % 92 % 1023,2 hPa 0,0 l/m² 0,0 km/h (0 Bft) SO 143 ° 0 min 0 W/m² -1,4 °C -0,3 °C 0,0 km/h (0 Bft)
12.12.2025 04:22 21,6 °C -0,3 °C 54 % 92 % 1023,2 hPa 0,0 l/m² 0,0 km/h (0 Bft) SO 143 ° 0 min 0 W/m² -1,4 °C -0,3 °C 0,0 km/h (0 Bft)
12.12.2025 04:24 21,6 °C -0,3 °C 54 % 92 % 1023,1 hPa 0,0 l/m² 0,0 km/h (0 Bft) SO 143 ° 0 min 0 W/m² -1,4 °C -0,3 °C 0,0 km/h (0 Bft)
12.12.2025 04:25 21,6 °C -0,3 °C 54 % 92 % 1023,2 hPa 0,0 l/m² 0,0 km/h (0 Bft) SO 143 ° 0 min 0 W/m² -1,4 °C -0,3 °C 0,0 km/h (0 Bft)
12.12.2025 04:26 21,6 °C -0,3 °C 54 % 92 % 1023,2 hPa 0,0 l/m² 0,0 km/h (0 Bft) SO 143 ° 0 min 0 W/m² -1,4 °C -0,3 °C 0,0 km/h (0 Bft)
12.12.2025 04:27 21,6 °C -0,3 °C 54 % 92 % 1023,2 hPa 0,0 l/m² 0,0 km/h (0 Bft) SO 143 ° 0 min 0 W/m² -1,4 °C -0,3 °C 0,0 km/h (0 Bft)
12.12.2025 04:28 21,6 °C -0,3 °C 54 % 92 % 1023,2 hPa 0,0 l/m² 0,0 km/h (0 Bft) SO 143 ° 0 min 0 W/m² -1,4 °C -0,3 °C 0,0 km/h (0 Bft)
12.12.2025 04:29 21,6 °C -0,3 °C 54 % 92 % 1023,2 hPa 0,0 l/m² 0,0 km/h (0 Bft) SO 143 ° 0 min 0 W/m² -1,4 °C -0,3 °C 0,0 km/h (0 Bft)
12.12.2025 04:31 21,6 °C -0,3 °C 54 % 92 % 1023,2 hPa 0,0 l/m² 0,0 km/h (0 Bft) SO 143 ° 0 min 0 W/m² -1,4 °C -0,3 °C 0,0 km/h (0 Bft)
12.12.2025 04:33 21,6 °C -0,3 °C 54 % 92 % 1023,3 hPa 0,0 l/m² 0,0 km/h (0 Bft) SO 143 ° 0 min 0 W/m² -1,4 °C -0,3 °C 0,0 km/h (0 Bft)
12.12.2025 04:34 21,6 °C -0,3 °C 54 % 92 % 1023,3 hPa 0,0 l/m² 0,0 km/h (0 Bft) SO 143 ° 0 min 0 W/m² -1,4 °C -0,3 °C 0,0 km/h (0 Bft)
12.12.2025 04:35 21,6 °C -0,3 °C 54 % 92 % 1023,3 hPa 0,0 l/m² 0,0 km/h (0 Bft) SO 143 ° 0 min 0 W/m² -1,4 °C -0,3 °C 0,0 km/h (0 Bft)
12.12.2025 04:36 21,6 °C -0,3 °C 54 % 92 % 1023,3 hPa 0,0 l/m² 0,0 km/h (0 Bft) SO 143 ° 0 min 0 W/m² -1,4 °C -0,3 °C 0,0 km/h (0 Bft)
12.12.2025 04:37 21,6 °C -0,3 °C 54 % 92 % 1023,3 hPa 0,0 l/m² 0,0 km/h (0 Bft) SO 143 ° 0 min 0 W/m² -1,4 °C -0,3 °C 0,0 km/h (0 Bft)
12.12.2025 04:38 21,6 °C -0,3 °C 54 % 92 % 1023,3 hPa 0,0 l/m² 0,0 km/h (0 Bft) SO 143 ° 0 min 0 W/m² -1,4 °C -0,3 °C 0,0 km/h (0 Bft)
12.12.2025 04:39 21,6 °C -0,3 °C 54 % 92 % 1023,3 hPa 0,0 l/m² 0,0 km/h (0 Bft) SO 143 ° 0 min 0 W/m² -1,4 °C -0,3 °C 0,0 km/h (0 Bft)
12.12.2025 04:41 21,6 °C -0,4 °C 54 % 92 % 1023,3 hPa 0,0 l/m² 0,0 km/h (0 Bft) SO 143 ° 0 min 0 W/m² -1,5 °C -0,4 °C 0,0 km/h (0 Bft)
12.12.2025 04:43 21,6 °C -0,4 °C 54 % 92 % 1023,3 hPa 0,0 l/m² 0,0 km/h (0 Bft) SO 143 ° 0 min 0 W/m² -1,5 °C -0,4 °C 0,0 km/h (0 Bft)
12.12.2025 04:44 21,6 °C -0,4 °C 54 % 92 % 1023,3 hPa 0,0 l/m² 0,0 km/h (0 Bft) SO 143 ° 0 min 0 W/m² -1,5 °C -0,4 °C 0,0 km/h (0 Bft)
12.12.2025 04:45 21,6 °C -0,4 °C 54 % 92 % 1023,3 hPa 0,0 l/m² 0,0 km/h (0 Bft) SO 143 ° 0 min 0 W/m² -1,5 °C -0,4 °C 0,0 km/h (0 Bft)
12.12.2025 04:46 21,6 °C -0,4 °C 54 % 92 % 1023,3 hPa 0,0 l/m² 0,0 km/h (0 Bft) SO 143 ° 0 min 0 W/m² -1,5 °C -0,4 °C 0,0 km/h (0 Bft)
12.12.2025 04:47 21,6 °C -0,4 °C 54 % 92 % 1023,3 hPa 0,0 l/m² 0,0 km/h (0 Bft) SO 143 ° 0 min 0 W/m² -1,5 °C -0,4 °C 0,0 km/h (0 Bft)
12.12.2025 04:48 21,6 °C -0,4 °C 54 % 93 % 1023,3 hPa 0,0 l/m² 0,0 km/h (0 Bft) SO 143 ° 0 min 0 W/m² -1,4 °C -0,4 °C 0,0 km/h (0 Bft)
12.12.2025 04:49 21,6 °C -0,4 °C 54 % 93 % 1023,3 hPa 0,0 l/m² 0,0 km/h (0 Bft) SO 143 ° 0 min 0 W/m² -1,4 °C -0,4 °C 0,0 km/h (0 Bft)
12.12.2025 04:51 21,6 °C -0,4 °C 54 % 93 % 1023,3 hPa 0,0 l/m² 0,0 km/h (0 Bft) SO 143 ° 0 min 0 W/m² -1,4 °C -0,4 °C 0,0 km/h (0 Bft)
12.12.2025 04:53 21,6 °C -0,4 °C 54 % 92 % 1023,3 hPa 0,0 l/m² 0,0 km/h (0 Bft) SO 143 ° 0 min 0 W/m² -1,5 °C -0,4 °C 0,0 km/h (0 Bft)
12.12.2025 04:54 21,7 °C -0,5 °C 54 % 92 % 1023,4 hPa 0,0 l/m² 0,0 km/h (0 Bft) SO 143 ° 0 min 0 W/m² -1,6 °C -0,5 °C 0,0 km/h (0 Bft)
12.12.2025 04:55 21,6 °C -0,5 °C 54 % 92 % 1023,4 hPa 0,0 l/m² 0,0 km/h (0 Bft) SO 143 ° 0 min 0 W/m² -1,6 °C -0,5 °C 0,0 km/h (0 Bft)
12.12.2025 04:56 21,6 °C -0,5 °C 54 % 92 % 1023,4 hPa 0,0 l/m² 0,0 km/h (0 Bft) SO 143 ° 0 min 0 W/m² -1,6 °C -0,5 °C 0,0 km/h (0 Bft)
12.12.2025 04:57 21,6 °C -0,6 °C 54 % 92 % 1023,3 hPa 0,0 l/m² 0,0 km/h (0 Bft) SO 143 ° 0 min 0 W/m² -1,7 °C -0,6 °C 0,0 km/h (0 Bft)
12.12.2025 04:58 21,6 °C -0,6 °C 54 % 92 % 1023,3 hPa 0,0 l/m² 0,0 km/h (0 Bft) SO 143 ° 0 min 0 W/m² -1,7 °C -0,6 °C 0,0 km/h (0 Bft)
12.12.2025 04:59 21,7 °C -0,6 °C 54 % 92 % 1023,4 hPa 0,0 l/m² 0,0 km/h (0 Bft) SO 143 ° 0 min 0 W/m² -1,7 °C -0,6 °C 0,0 km/h (0 Bft)
12.12.2025 05:01 21,6 °C -0,7 °C 54 % 92 % 1023,3 hPa 0,0 l/m² 0,0 km/h (0 Bft) SO 143 ° 0 min 0 W/m² -1,8 °C -0,7 °C 0,0 km/h (0 Bft)
12.12.2025 05:02 21,6 °C -0,6 °C 54 % 92 % 1023,3 hPa 0,0 l/m² 0,0 km/h (0 Bft) SO 143 ° 0 min 0 W/m² -1,7 °C -0,6 °C 0,0 km/h (0 Bft)
12.12.2025 05:03 21,7 °C -0,7 °C 54 % 92 % 1023,3 hPa 0,0 l/m² 0,0 km/h (0 Bft) SO 143 ° 0 min 0 W/m² -1,8 °C -0,7 °C 0,0 km/h (0 Bft)
12.12.2025 05:04 21,7 °C -0,7 °C 54 % 92 % 1023,3 hPa 0,0 l/m² 0,0 km/h (0 Bft) SO 143 ° 0 min 0 W/m² -1,8 °C -0,7 °C 0,0 km/h (0 Bft)
12.12.2025 05:05 21,6 °C -0,7 °C 54 % 92 % 1023,3 hPa 0,0 l/m² 0,0 km/h (0 Bft) SO 143 ° 0 min 0 W/m² -1,8 °C -0,7 °C 0,0 km/h (0 Bft)
12.12.2025 05:06 21,7 °C -0,7 °C 54 % 92 % 1023,3 hPa 0,0 l/m² 0,0 km/h (0 Bft) SO 143 ° 0 min 0 W/m² -1,8 °C -0,7 °C 0,0 km/h (0 Bft)
12.12.2025 05:08 21,7 °C -0,7 °C 54 % 92 % 1023,3 hPa 0,0 l/m² 0,0 km/h (0 Bft) SO 143 ° 0 min 0 W/m² -1,8 °C -0,7 °C 0,0 km/h (0 Bft)
12.12.2025 05:09 21,7 °C -0,8 °C 54 % 92 % 1023,3 hPa 0,0 l/m² 0,0 km/h (0 Bft) SO 143 ° 0 min 0 W/m² -1,9 °C -0,8 °C 0,0 km/h (0 Bft)
12.12.2025 05:11 21,7 °C -0,8 °C 54 % 92 % 1023,3 hPa 0,0 l/m² 0,0 km/h (0 Bft) SO 143 ° 0 min 0 W/m² -1,9 °C -0,8 °C 0,0 km/h (0 Bft)
12.12.2025 05:13 21,7 °C -0,8 °C 54 % 92 % 1023,3 hPa 0,0 l/m² 0,0 km/h (0 Bft) SO 143 ° 0 min 0 W/m² -1,9 °C -0,8 °C 0,0 km/h (0 Bft)
12.12.2025 05:14 21,7 °C -0,8 °C 54 % 92 % 1023,3 hPa 0,0 l/m² 0,0 km/h (0 Bft) SO 143 ° 0 min 0 W/m² -1,9 °C -0,8 °C 0,0 km/h (0 Bft)
12.12.2025 05:15 21,6 °C -0,8 °C 54 % 92 % 1023,3 hPa 0,0 l/m² 0,0 km/h (0 Bft) SO 143 ° 0 min 0 W/m² -1,9 °C -0,8 °C 0,0 km/h (0 Bft)
12.12.2025 05:16 21,6 °C -0,8 °C 54 % 92 % 1023,3 hPa 0,0 l/m² 0,0 km/h (0 Bft) SO 143 ° 0 min 0 W/m² -1,9 °C -0,8 °C 0,0 km/h (0 Bft)
12.12.2025 05:17 21,7 °C -0,8 °C 54 % 92 % 1023,3 hPa 0,0 l/m² 0,0 km/h (0 Bft) SO 143 ° 0 min 0 W/m² -1,9 °C -0,8 °C 0,0 km/h (0 Bft)
12.12.2025 05:18 21,7 °C -0,8 °C 54 % 92 % 1023,3 hPa 0,0 l/m² 0,0 km/h (0 Bft) SO 143 ° 0 min 0 W/m² -1,9 °C -0,8 °C 0,0 km/h (0 Bft)
12.12.2025 05:19 21,6 °C -0,8 °C 54 % 92 % 1023,3 hPa 0,0 l/m² 0,0 km/h (0 Bft) SO 143 ° 0 min 0 W/m² -1,9 °C -0,8 °C 0,0 km/h (0 Bft)
12.12.2025 05:21 21,7 °C -0,8 °C 54 % 92 % 1023,4 hPa 0,0 l/m² 0,0 km/h (0 Bft) SO 143 ° 0 min 0 W/m² -1,9 °C -0,8 °C 0,0 km/h (0 Bft)
12.12.2025 05:23 21,7 °C -0,8 °C 54 % 92 % 1023,4 hPa 0,0 l/m² 0,0 km/h (0 Bft) SO 143 ° 0 min 0 W/m² -1,9 °C -0,8 °C 0,0 km/h (0 Bft)
12.12.2025 05:24 21,7 °C -0,8 °C 54 % 92 % 1023,4 hPa 0,0 l/m² 0,0 km/h (0 Bft) SO 143 ° 0 min 0 W/m² -1,9 °C -0,8 °C 0,0 km/h (0 Bft)
12.12.2025 05:25 21,7 °C -0,8 °C 54 % 92 % 1023,4 hPa 0,0 l/m² 0,0 km/h (0 Bft) SO 143 ° 0 min 0 W/m² -1,9 °C -0,8 °C 0,0 km/h (0 Bft)
12.12.2025 05:26 21,6 °C -0,8 °C 54 % 92 % 1023,3 hPa 0,0 l/m² 0,0 km/h (0 Bft) SO 143 ° 0 min 0 W/m² -1,9 °C -0,8 °C 0,0 km/h (0 Bft)
12.12.2025 05:27 21,7 °C -0,8 °C 54 % 92 % 1023,3 hPa 0,0 l/m² 0,0 km/h (0 Bft) SO 143 ° 0 min 0 W/m² -1,9 °C -0,8 °C 0,0 km/h (0 Bft)
12.12.2025 05:28 21,7 °C -0,8 °C 54 % 92 % 1023,4 hPa 0,0 l/m² 0,0 km/h (0 Bft) SO 143 ° 0 min 0 W/m² -1,9 °C -0,8 °C 0,0 km/h (0 Bft)
12.12.2025 05:29 21,7 °C -0,9 °C 54 % 92 % 1023,3 hPa 0,0 l/m² 0,0 km/h (0 Bft) SO 143 ° 0 min 0 W/m² -2,0 °C -0,9 °C 0,0 km/h (0 Bft)
12.12.2025 05:31 21,6 °C -0,8 °C 54 % 92 % 1023,4 hPa 0,0 l/m² 0,0 km/h (0 Bft) SO 143 ° 0 min 0 W/m² -1,9 °C -0,8 °C 0,0 km/h (0 Bft)
12.12.2025 05:33 21,7 °C -0,8 °C 54 % 92 % 1023,3 hPa 0,0 l/m² 0,0 km/h (0 Bft) SO 143 ° 0 min 0 W/m² -1,9 °C -0,8 °C 0,0 km/h (0 Bft)
12.12.2025 05:34 21,7 °C -0,8 °C 54 % 92 % 1023,3 hPa 0,0 l/m² 0,0 km/h (0 Bft) SO 143 ° 0 min 0 W/m² -1,9 °C -0,8 °C 0,0 km/h (0 Bft)
12.12.2025 05:35 21,6 °C -0,8 °C 54 % 92 % 1023,4 hPa 0,0 l/m² 0,0 km/h (0 Bft) SO 143 ° 0 min 0 W/m² -1,9 °C -0,8 °C 0,0 km/h (0 Bft)
12.12.2025 05:36 21,6 °C -0,9 °C 54 % 92 % 1023,3 hPa 0,0 l/m² 0,0 km/h (0 Bft) SO 143 ° 0 min 0 W/m² -2,0 °C -0,9 °C 0,0 km/h (0 Bft)
12.12.2025 05:37 21,7 °C -0,9 °C 54 % 92 % 1023,4 hPa 0,0 l/m² 0,0 km/h (0 Bft) SO 143 ° 0 min 0 W/m² -2,0 °C -0,9 °C 0,0 km/h (0 Bft)
12.12.2025 05:38 21,6 °C -0,8 °C 54 % 92 % 1023,4 hPa 0,0 l/m² 0,0 km/h (0 Bft) SO 143 ° 0 min 0 W/m² -1,9 °C -0,8 °C 0,0 km/h (0 Bft)
12.12.2025 05:39 21,6 °C -0,8 °C 54 % 92 % 1023,4 hPa 0,0 l/m² 0,0 km/h (0 Bft) SO 143 ° 0 min 0 W/m² -1,9 °C -0,8 °C 0,0 km/h (0 Bft)
12.12.2025 05:41 21,7 °C -0,8 °C 54 % 93 % 1023,4 hPa 0,0 l/m² 0,0 km/h (0 Bft) SO 143 ° 0 min 0 W/m² -1,8 °C -0,8 °C 0,0 km/h (0 Bft)
12.12.2025 05:43 21,6 °C -0,9 °C 54 % 93 % 1023,4 hPa 0,0 l/m² 0,0 km/h (0 Bft) SO 143 ° 0 min 0 W/m² -1,9 °C -0,9 °C 0,0 km/h (0 Bft)
12.12.2025 05:44 21,7 °C -0,8 °C 54 % 93 % 1023,4 hPa 0,0 l/m² 0,0 km/h (0 Bft) SO 143 ° 0 min 0 W/m² -1,8 °C -0,8 °C 0,0 km/h (0 Bft)
12.12.2025 05:45 21,6 °C -0,9 °C 54 % 93 % 1023,4 hPa 0,0 l/m² 0,0 km/h (0 Bft) SO 143 ° 0 min 0 W/m² -1,9 °C -0,9 °C 0,0 km/h (0 Bft)
12.12.2025 05:46 21,6 °C -0,8 °C 54 % 93 % 1023,4 hPa 0,0 l/m² 0,0 km/h (0 Bft) SO 143 ° 0 min 0 W/m² -1,8 °C -0,8 °C 0,0 km/h (0 Bft)
12.12.2025 05:47 21,7 °C -0,8 °C 54 % 93 % 1023,4 hPa 0,0 l/m² 0,0 km/h (0 Bft) SO 143 ° 0 min 0 W/m² -1,8 °C -0,8 °C 0,0 km/h (0 Bft)
12.12.2025 05:48 21,7 °C -0,8 °C 54 % 93 % 1023,5 hPa 0,0 l/m² 0,0 km/h (0 Bft) SO 143 ° 0 min 0 W/m² -1,8 °C -0,8 °C 0,0 km/h (0 Bft)
12.12.2025 05:49 21,6 °C -0,8 °C 54 % 93 % 1023,4 hPa 0,0 l/m² 0,0 km/h (0 Bft) SO 143 ° 0 min 0 W/m² -1,8 °C -0,8 °C 0,0 km/h (0 Bft)
12.12.2025 05:51 21,6 °C -0,8 °C 54 % 93 % 1023,5 hPa 0,0 l/m² 0,0 km/h (0 Bft) SO 143 ° 0 min 0 W/m² -1,8 °C -0,8 °C 0,0 km/h (0 Bft)
12.12.2025 05:53 21,7 °C -0,8 °C 54 % 93 % 1023,4 hPa 0,0 l/m² 0,0 km/h (0 Bft) SO 143 ° 0 min 0 W/m² -1,8 °C -0,8 °C 0,0 km/h (0 Bft)
12.12.2025 05:54 21,6 °C -0,8 °C 54 % 93 % 1023,4 hPa 0,0 l/m² 0,0 km/h (0 Bft) SO 143 ° 0 min 0 W/m² -1,8 °C -0,8 °C 0,0 km/h (0 Bft)
12.12.2025 05:55 21,7 °C -0,8 °C 54 % 93 % 1023,5 hPa 0,0 l/m² 0,0 km/h (0 Bft) SO 143 ° 0 min 0 W/m² -1,8 °C -0,8 °C 0,0 km/h (0 Bft)
12.12.2025 05:56 21,7 °C -0,8 °C 54 % 93 % 1023,4 hPa 0,0 l/m² 0,0 km/h (0 Bft) SO 143 ° 0 min 0 W/m² -1,8 °C -0,8 °C 0,0 km/h (0 Bft)
12.12.2025 05:57 21,6 °C -0,8 °C 54 % 93 % 1023,4 hPa 0,0 l/m² 0,0 km/h (0 Bft) SO 143 ° 0 min 0 W/m² -1,8 °C -0,8 °C 0,0 km/h (0 Bft)
12.12.2025 05:58 21,7 °C -0,8 °C 54 % 93 % 1023,4 hPa 0,0 l/m² 0,0 km/h (0 Bft) SO 143 ° 0 min 0 W/m² -1,8 °C -0,8 °C 0,0 km/h (0 Bft)
12.12.2025 05:59 21,6 °C -0,8 °C 54 % 93 % 1023,4 hPa 0,0 l/m² 0,0 km/h (0 Bft) SO 143 ° 0 min 0 W/m² -1,8 °C -0,8 °C 0,0 km/h (0 Bft)
12.12.2025 06:01 21,7 °C -0,8 °C 54 % 93 % 1023,4 hPa 0,0 l/m² 0,0 km/h (0 Bft) SO 143 ° 0 min 0 W/m² -1,8 °C -0,8 °C 0,0 km/h (0 Bft)
12.12.2025 06:03 21,7 °C -0,8 °C 54 % 93 % 1023,4 hPa 0,0 l/m² 0,0 km/h (0 Bft) SO 143 ° 0 min 0 W/m² -1,8 °C -0,8 °C 0,0 km/h (0 Bft)
12.12.2025 06:04 21,6 °C -0,8 °C 54 % 93 % 1023,5 hPa 0,0 l/m² 0,0 km/h (0 Bft) SO 143 ° 0 min 0 W/m² -1,8 °C -0,8 °C 0,0 km/h (0 Bft)
12.12.2025 06:05 21,7 °C -0,8 °C 54 % 93 % 1023,5 hPa 0,0 l/m² 0,0 km/h (0 Bft) SO 143 ° 0 min 0 W/m² -1,8 °C -0,8 °C 0,0 km/h (0 Bft)
12.12.2025 06:06 21,7 °C -0,8 °C 54 % 93 % 1023,5 hPa 0,0 l/m² 0,0 km/h (0 Bft) SO 143 ° 0 min 0 W/m² -1,8 °C -0,8 °C 0,0 km/h (0 Bft)
12.12.2025 06:07 21,6 °C -0,8 °C 54 % 93 % 1023,5 hPa 0,0 l/m² 0,0 km/h (0 Bft) SO 143 ° 0 min 0 W/m² -1,8 °C -0,8 °C 0,0 km/h (0 Bft)
12.12.2025 06:08 21,6 °C -0,8 °C 54 % 93 % 1023,5 hPa 0,0 l/m² 0,0 km/h (0 Bft) SO 143 ° 0 min 0 W/m² -1,8 °C -0,8 °C 0,0 km/h (0 Bft)
12.12.2025 06:09 21,7 °C -0,8 °C 54 % 93 % 1023,5 hPa 0,0 l/m² 0,0 km/h (0 Bft) SO 143 ° 0 min 0 W/m² -1,8 °C -0,8 °C 0,0 km/h (0 Bft)
12.12.2025 06:11 21,6 °C -0,8 °C 54 % 93 % 1023,5 hPa 0,0 l/m² 0,0 km/h (0 Bft) SO 143 ° 0 min 0 W/m² -1,8 °C -0,8 °C 0,0 km/h (0 Bft)
12.12.2025 06:13 21,6 °C -0,8 °C 54 % 93 % 1023,5 hPa 0,0 l/m² 0,0 km/h (0 Bft) SO 143 ° 0 min 0 W/m² -1,8 °C -0,8 °C 0,0 km/h (0 Bft)
12.12.2025 06:14 21,7 °C -0,8 °C 54 % 93 % 1023,5 hPa 0,0 l/m² 0,0 km/h (0 Bft) SO 143 ° 0 min 0 W/m² -1,8 °C -0,8 °C 0,0 km/h (0 Bft)
12.12.2025 06:15 21,7 °C -0,8 °C 54 % 93 % 1023,5 hPa 0,0 l/m² 0,0 km/h (0 Bft) SO 143 ° 0 min 0 W/m² -1,8 °C -0,8 °C 0,0 km/h (0 Bft)
12.12.2025 06:16 21,7 °C -0,8 °C 54 % 93 % 1023,5 hPa 0,0 l/m² 0,0 km/h (0 Bft) SO 143 ° 0 min 0 W/m² -1,8 °C -0,8 °C 0,0 km/h (0 Bft)
12.12.2025 06:17 21,7 °C -0,9 °C 54 % 93 % 1023,6 hPa 0,0 l/m² 0,0 km/h (0 Bft) SO 143 ° 0 min 0 W/m² -1,9 °C -0,9 °C 0,0 km/h (0 Bft)
12.12.2025 06:18 21,7 °C -0,8 °C 54 % 93 % 1023,6 hPa 0,0 l/m² 0,0 km/h (0 Bft) SO 143 ° 0 min 0 W/m² -1,8 °C -0,8 °C 0,0 km/h (0 Bft)
12.12.2025 06:19 21,7 °C -0,9 °C 54 % 93 % 1023,5 hPa 0,0 l/m² 0,0 km/h (0 Bft) SO 143 ° 0 min 0 W/m² -1,9 °C -0,9 °C 0,0 km/h (0 Bft)
12.12.2025 06:21 21,7 °C -0,9 °C 54 % 93 % 1023,6 hPa 0,0 l/m² 0,0 km/h (0 Bft) SO 143 ° 0 min 0 W/m² -1,9 °C -0,9 °C 0,0 km/h (0 Bft)
12.12.2025 06:23 21,7 °C -0,9 °C 54 % 93 % 1023,6 hPa 0,0 l/m² 0,0 km/h (0 Bft) SO 143 ° 0 min 0 W/m² -1,9 °C -0,9 °C 0,0 km/h (0 Bft)
12.12.2025 06:24 21,7 °C -0,9 °C 54 % 93 % 1023,6 hPa 0,0 l/m² 0,0 km/h (0 Bft) SO 143 ° 0 min 0 W/m² -1,9 °C -0,9 °C 0,0 km/h (0 Bft)
12.12.2025 06:25 21,7 °C -0,9 °C 54 % 93 % 1023,6 hPa 0,0 l/m² 0,0 km/h (0 Bft) SO 143 ° 0 min 0 W/m² -1,9 °C -0,9 °C 0,0 km/h (0 Bft)
12.12.2025 06:26 21,7 °C -0,9 °C 54 % 93 % 1023,6 hPa 0,0 l/m² 0,0 km/h (0 Bft) SO 143 ° 0 min 0 W/m² -1,9 °C -0,9 °C 0,0 km/h (0 Bft)
12.12.2025 06:27 21,7 °C -0,9 °C 54 % 93 % 1023,6 hPa 0,0 l/m² 0,0 km/h (0 Bft) SO 143 ° 0 min 0 W/m² -1,9 °C -0,9 °C 0,0 km/h (0 Bft)
12.12.2025 06:28 21,7 °C -0,9 °C 54 % 93 % 1023,6 hPa 0,0 l/m² 0,0 km/h (0 Bft) SO 143 ° 0 min 0 W/m² -1,9 °C -0,9 °C 0,0 km/h (0 Bft)
12.12.2025 06:29 21,7 °C -0,9 °C 54 % 93 % 1023,6 hPa 0,0 l/m² 0,0 km/h (0 Bft) SO 143 ° 0 min 0 W/m² -1,9 °C -0,9 °C 0,0 km/h (0 Bft)
12.12.2025 06:31 21,7 °C -0,9 °C 54 % 93 % 1023,6 hPa 0,0 l/m² 0,0 km/h (0 Bft) SO 143 ° 0 min 0 W/m² -1,9 °C -0,9 °C 0,0 km/h (0 Bft)
12.12.2025 06:33 21,7 °C -0,9 °C 54 % 93 % 1023,6 hPa 0,0 l/m² 0,0 km/h (0 Bft) SO 143 ° 0 min 0 W/m² -1,9 °C -0,9 °C 0,0 km/h (0 Bft)
12.12.2025 06:34 21,7 °C -0,9 °C 54 % 93 % 1023,7 hPa 0,0 l/m² 0,0 km/h (0 Bft) SO 143 ° 0 min 0 W/m² -1,9 °C -0,9 °C 0,0 km/h (0 Bft)
12.12.2025 06:35 21,7 °C -0,9 °C 54 % 93 % 1023,6 hPa 0,0 l/m² 0,0 km/h (0 Bft) SO 143 ° 0 min 0 W/m² -1,9 °C -0,9 °C 0,0 km/h (0 Bft)
12.12.2025 06:36 21,7 °C -0,9 °C 54 % 93 % 1023,6 hPa 0,0 l/m² 0,0 km/h (0 Bft) SO 143 ° 0 min 0 W/m² -1,9 °C -0,9 °C 0,0 km/h (0 Bft)
12.12.2025 06:37 21,7 °C -0,9 °C 54 % 93 % 1023,6 hPa 0,0 l/m² 0,0 km/h (0 Bft) SO 143 ° 0 min 0 W/m² -1,9 °C -0,9 °C 0,0 km/h (0 Bft)
12.12.2025 06:38 21,7 °C -0,9 °C 54 % 93 % 1023,6 hPa 0,0 l/m² 0,0 km/h (0 Bft) SO 143 ° 0 min 0 W/m² -1,9 °C -0,9 °C 0,0 km/h (0 Bft)
12.12.2025 06:39 21,7 °C -0,9 °C 54 % 93 % 1023,6 hPa 0,0 l/m² 0,0 km/h (0 Bft) SO 143 ° 0 min 0 W/m² -1,9 °C -0,9 °C 0,0 km/h (0 Bft)
12.12.2025 06:41 21,7 °C -0,9 °C 54 % 93 % 1023,6 hPa 0,0 l/m² 0,0 km/h (0 Bft) SO 143 ° 0 min 0 W/m² -1,9 °C -0,9 °C 0,0 km/h (0 Bft)
12.12.2025 06:43 21,7 °C -0,9 °C 54 % 93 % 1023,6 hPa 0,0 l/m² 0,0 km/h (0 Bft) SO 143 ° 0 min 0 W/m² -1,9 °C -0,9 °C 0,0 km/h (0 Bft)
12.12.2025 06:44 21,7 °C -0,8 °C 54 % 93 % 1023,6 hPa 0,0 l/m² 0,0 km/h (0 Bft) SO 143 ° 0 min 0 W/m² -1,8 °C -0,8 °C 0,0 km/h (0 Bft)
12.12.2025 06:47 21,7 °C -0,8 °C 54 % 93 % 1023,7 hPa 0,0 l/m² 0,0 km/h (0 Bft) SO 143 ° 0 min 0 W/m² -1,8 °C -0,8 °C 0,0 km/h (0 Bft)
12.12.2025 06:48 21,7 °C -0,8 °C 54 % 93 % 1023,8 hPa 0,0 l/m² 0,0 km/h (0 Bft) SO 143 ° 0 min 0 W/m² -1,8 °C -0,8 °C 0,0 km/h (0 Bft)
12.12.2025 06:49 21,7 °C -0,8 °C 54 % 93 % 1023,6 hPa 0,0 l/m² 0,0 km/h (0 Bft) SO 143 ° 0 min 0 W/m² -1,8 °C -0,8 °C 0,0 km/h (0 Bft)
12.12.2025 06:51 21,7 °C -0,7 °C 54 % 93 % 1023,6 hPa 0,0 l/m² 0,0 km/h (0 Bft) SO 143 ° 0 min 0 W/m² -1,7 °C -0,7 °C 0,0 km/h (0 Bft)
12.12.2025 06:53 21,7 °C -0,7 °C 54 % 93 % 1023,7 hPa 0,0 l/m² 0,0 km/h (0 Bft) SO 143 ° 0 min 0 W/m² -1,7 °C -0,7 °C 0,0 km/h (0 Bft)
12.12.2025 06:54 21,7 °C -0,7 °C 54 % 93 % 1023,7 hPa 0,0 l/m² 0,0 km/h (0 Bft) SO 143 ° 0 min 0 W/m² -1,7 °C -0,7 °C 0,0 km/h (0 Bft)
12.12.2025 06:55 21,7 °C -0,7 °C 54 % 93 % 1023,7 hPa 0,0 l/m² 0,0 km/h (0 Bft) SO 143 ° 0 min 0 W/m² -1,7 °C -0,7 °C 0,0 km/h (0 Bft)
12.12.2025 06:57 21,7 °C -0,6 °C 54 % 93 % 1023,7 hPa 0,0 l/m² 0,0 km/h (0 Bft) SO 143 ° 0 min 0 W/m² -1,6 °C -0,6 °C 0,0 km/h (0 Bft)
12.12.2025 06:58 21,7 °C -0,6 °C 54 % 93 % 1023,7 hPa 0,0 l/m² 0,0 km/h (0 Bft) SO 143 ° 0 min 0 W/m² -1,6 °C -0,6 °C 0,0 km/h (0 Bft)
12.12.2025 06:59 21,7 °C -0,6 °C 54 % 93 % 1023,7 hPa 0,0 l/m² 0,0 km/h (0 Bft) SO 144 ° 0 min 0 W/m² -1,6 °C -0,6 °C 0,0 km/h (0 Bft)
12.12.2025 07:01 21,7 °C -0,6 °C 54 % 93 % 1023,6 hPa 0,0 l/m² 0,0 km/h (0 Bft) SO 143 ° 0 min 0 W/m² -1,6 °C -0,6 °C 0,0 km/h (0 Bft)
12.12.2025 07:02 21,7 °C -0,6 °C 54 % 93 % 1023,7 hPa 0,0 l/m² 0,0 km/h (0 Bft) SO 143 ° 0 min 0 W/m² -1,6 °C -0,6 °C 0,0 km/h (0 Bft)
12.12.2025 07:03 21,7 °C -0,6 °C 54 % 93 % 1023,7 hPa 0,0 l/m² 0,0 km/h (0 Bft) SO 143 ° 0 min 0 W/m² -1,6 °C -0,6 °C 0,0 km/h (0 Bft)
12.12.2025 07:04 21,7 °C -0,5 °C 54 % 93 % 1023,7 hPa 0,0 l/m² 0,0 km/h (0 Bft) SO 144 ° 0 min 0 W/m² -1,5 °C -0,5 °C 0,0 km/h (0 Bft)
12.12.2025 07:05 21,7 °C -0,5 °C 54 % 93 % 1023,8 hPa 0,0 l/m² 0,0 km/h (0 Bft) SO 143 ° 0 min 0 W/m² -1,5 °C -0,5 °C 0,0 km/h (0 Bft)
12.12.2025 07:06 21,7 °C -0,5 °C 54 % 93 % 1023,7 hPa 0,0 l/m² 0,0 km/h (0 Bft) SO 143 ° 0 min 0 W/m² -1,5 °C -0,5 °C 0,0 km/h (0 Bft)
12.12.2025 07:08 21,7 °C -0,5 °C 54 % 93 % 1023,8 hPa 0,0 l/m² 0,0 km/h (0 Bft) SO 143 ° 0 min 0 W/m² -1,5 °C -0,5 °C 0,0 km/h (0 Bft)
12.12.2025 07:09 21,7 °C -0,5 °C 54 % 93 % 1023,8 hPa 0,0 l/m² 0,0 km/h (0 Bft) SO 143 ° 0 min 0 W/m² -1,5 °C -0,5 °C 0,0 km/h (0 Bft)
12.12.2025 07:11 21,7 °C -0,4 °C 54 % 93 % 1023,8 hPa 0,0 l/m² 0,0 km/h (0 Bft) SO 143 ° 0 min 0 W/m² -1,4 °C -0,4 °C 0,0 km/h (0 Bft)
12.12.2025 07:12 21,7 °C -0,4 °C 54 % 93 % 1023,8 hPa 0,0 l/m² 0,0 km/h (0 Bft) SO 143 ° 0 min 0 W/m² -1,4 °C -0,4 °C 0,0 km/h (0 Bft)
12.12.2025 07:13 21,7 °C -0,4 °C 54 % 93 % 1023,8 hPa 0,0 l/m² 0,0 km/h (0 Bft) SO 143 ° 0 min 0 W/m² -1,4 °C -0,4 °C 0,0 km/h (0 Bft)
12.12.2025 07:14 21,7 °C -0,4 °C 54 % 93 % 1023,8 hPa 0,0 l/m² 0,0 km/h (0 Bft) SO 143 ° 0 min 0 W/m² -1,4 °C -0,4 °C 0,0 km/h (0 Bft)
12.12.2025 07:15 21,7 °C -0,4 °C 54 % 93 % 1023,8 hPa 0,0 l/m² 0,0 km/h (0 Bft) SO 143 ° 0 min 0 W/m² -1,4 °C -0,4 °C 0,0 km/h (0 Bft)
12.12.2025 07:16 21,7 °C -0,4 °C 54 % 93 % 1023,8 hPa 0,0 l/m² 0,0 km/h (0 Bft) SO 143 ° 0 min 0 W/m² -1,4 °C -0,4 °C 0,0 km/h (0 Bft)
12.12.2025 07:17 21,7 °C -0,4 °C 54 % 93 % 1023,8 hPa 0,0 l/m² 0,0 km/h (0 Bft) SO 143 ° 0 min 0 W/m² -1,4 °C -0,4 °C 0,0 km/h (0 Bft)
12.12.2025 07:18 21,8 °C -0,4 °C 54 % 93 % 1023,8 hPa 0,0 l/m² 0,0 km/h (0 Bft) SO 143 ° 0 min 0 W/m² -1,4 °C -0,4 °C 0,0 km/h (0 Bft)
12.12.2025 07:19 21,7 °C -0,4 °C 53 % 93 % 1023,8 hPa 0,0 l/m² 0,0 km/h (0 Bft) SO 143 ° 0 min 0 W/m² -1,4 °C -0,4 °C 0,0 km/h (0 Bft)
12.12.2025 07:20 21,8 °C -0,4 °C 53 % 93 % 1023,9 hPa 0,0 l/m² 0,0 km/h (0 Bft) SO 143 ° 0 min 0 W/m² -1,4 °C -0,4 °C 0,0 km/h (0 Bft)
12.12.2025 07:21 21,7 °C -0,4 °C 53 % 93 % 1023,9 hPa 0,0 l/m² 0,0 km/h (0 Bft) SO 143 ° 0 min 0 W/m² -1,4 °C -0,4 °C 0,0 km/h (0 Bft)
12.12.2025 07:22 21,7 °C -0,3 °C 53 % 93 % 1023,9 hPa 0,0 l/m² 0,0 km/h (0 Bft) SO 143 ° 0 min 0 W/m² -1,3 °C -0,3 °C 0,0 km/h (0 Bft)
12.12.2025 07:23 21,8 °C -0,3 °C 53 % 93 % 1023,9 hPa 0,0 l/m² 0,0 km/h (0 Bft) SO 143 ° 0 min 0 W/m² -1,3 °C -0,3 °C 0,0 km/h (0 Bft)
12.12.2025 07:24 21,8 °C -0,3 °C 53 % 93 % 1023,9 hPa 0,0 l/m² 0,0 km/h (0 Bft) SO 143 ° 0 min 0 W/m² -1,3 °C -0,3 °C 0,0 km/h (0 Bft)
12.12.2025 07:25 21,8 °C -0,3 °C 53 % 93 % 1023,9 hPa 0,0 l/m² 0,0 km/h (0 Bft) SO 143 ° 0 min 0 W/m² -1,3 °C -0,3 °C 0,0 km/h (0 Bft)
12.12.2025 07:26 21,8 °C -0,3 °C 53 % 93 % 1023,9 hPa 0,0 l/m² 0,0 km/h (0 Bft) SO 143 ° 0 min 0 W/m² -1,3 °C -0,3 °C 0,0 km/h (0 Bft)
12.12.2025 07:27 21,8 °C -0,3 °C 53 % 93 % 1023,9 hPa 0,0 l/m² 0,0 km/h (0 Bft) SO 143 ° 0 min 0 W/m² -1,3 °C -0,3 °C 0,0 km/h (0 Bft)
12.12.2025 07:28 21,8 °C -0,3 °C 53 % 93 % 1024,0 hPa 0,0 l/m² 0,0 km/h (0 Bft) SO 143 ° 0 min 0 W/m² -1,3 °C -0,3 °C 0,0 km/h (0 Bft)
12.12.2025 07:29 21,8 °C -0,2 °C 53 % 93 % 1024,0 hPa 0,0 l/m² 0,0 km/h (0 Bft) SO 143 ° 0 min 0 W/m² -1,2 °C -0,2 °C 0,0 km/h (0 Bft)
12.12.2025 07:30 21,8 °C -0,2 °C 53 % 93 % 1023,8 hPa 0,0 l/m² 0,0 km/h (0 Bft) SO 143 ° 0 min 0 W/m² -1,2 °C -0,2 °C 0,0 km/h (0 Bft)
12.12.2025 07:31 21,8 °C -0,2 °C 53 % 93 % 1023,8 hPa 0,0 l/m² 0,0 km/h (0 Bft) SO 143 ° 0 min 0 W/m² -1,2 °C -0,2 °C 0,0 km/h (0 Bft)
12.12.2025 07:32 21,7 °C -0,2 °C 53 % 93 % 1023,9 hPa 0,0 l/m² 0,0 km/h (0 Bft) SO 143 ° 0 min 0 W/m² -1,2 °C -0,2 °C 0,0 km/h (0 Bft)
12.12.2025 07:33 21,8 °C -0,2 °C 53 % 93 % 1023,9 hPa 0,0 l/m² 0,0 km/h (0 Bft) SO 143 ° 0 min 0 W/m² -1,2 °C -0,2 °C 0,0 km/h (0 Bft)
12.12.2025 07:34 21,8 °C -0,1 °C 53 % 93 % 1023,9 hPa 0,0 l/m² 0,0 km/h (0 Bft) SO 143 ° 0 min 0 W/m² -1,1 °C -0,1 °C 0,0 km/h (0 Bft)
12.12.2025 07:35 21,8 °C -0,1 °C 53 % 94 % 1023,9 hPa 0,0 l/m² 0,0 km/h (0 Bft) SO 143 ° 0 min 0 W/m² -0,9 °C -0,1 °C 0,0 km/h (0 Bft)
12.12.2025 07:36 21,8 °C -0,1 °C 53 % 93 % 1024,0 hPa 0,0 l/m² 0,0 km/h (0 Bft) SO 143 ° 0 min 0 W/m² -1,1 °C -0,1 °C 0,0 km/h (0 Bft)
12.12.2025 07:37 21,7 °C -0,1 °C 53 % 93 % 1023,9 hPa 0,0 l/m² 0,0 km/h (0 Bft) SO 143 ° 0 min 0 W/m² -1,1 °C -0,1 °C 0,0 km/h (0 Bft)
12.12.2025 07:38 21,7 °C 0,0 °C 53 % 93 % 1023,9 hPa 0,0 l/m² 0,0 km/h (0 Bft) SO 143 ° 0 min 0 W/m² -1,0 °C 0,0 °C 0,0 km/h (0 Bft)
12.12.2025 07:39 21,8 °C 0,0 °C 53 % 93 % 1024,0 hPa 0,0 l/m² 0,0 km/h (0 Bft) SO 143 ° 0 min 0 W/m² -1,0 °C 0,0 °C 0,0 km/h (0 Bft)
12.12.2025 07:40 21,8 °C 0,1 °C 53 % 93 % 1023,9 hPa 0,0 l/m² 0,0 km/h (0 Bft) SO 143 ° 0 min 0 W/m² -0,9 °C 0,1 °C 0,0 km/h (0 Bft)
12.12.2025 07:41 21,8 °C 0,0 °C 53 % 93 % 1023,9 hPa 0,0 l/m² 0,0 km/h (0 Bft) SO 143 ° 0 min 0 W/m² -1,0 °C 0,0 °C 0,0 km/h (0 Bft)
12.12.2025 07:42 21,7 °C 0,1 °C 53 % 93 % 1024,0 hPa 0,0 l/m² 0,0 km/h (0 Bft) SO 143 ° 0 min 0 W/m² -0,9 °C 0,1 °C 0,0 km/h (0 Bft)
12.12.2025 07:43 21,8 °C 0,1 °C 53 % 93 % 1024,0 hPa 0,0 l/m² 0,0 km/h (0 Bft) SO 143 ° 0 min 0 W/m² -0,9 °C 0,1 °C 0,0 km/h (0 Bft)
12.12.2025 07:44 21,7 °C 0,1 °C 53 % 93 % 1023,9 hPa 0,0 l/m² 0,0 km/h (0 Bft) SO 143 ° 0 min 0 W/m² -0,9 °C 0,1 °C 0,0 km/h (0 Bft)
12.12.2025 07:45 21,8 °C 0,1 °C 53 % 93 % 1024,0 hPa 0,0 l/m² 0,0 km/h (0 Bft) SO 143 ° 0 min 0 W/m² -0,9 °C 0,1 °C 0,0 km/h (0 Bft)
12.12.2025 07:46 21,8 °C 0,1 °C 53 % 93 % 1023,9 hPa 0,0 l/m² 0,0 km/h (0 Bft) SO 143 ° 0 min 0 W/m² -0,9 °C 0,1 °C 0,0 km/h (0 Bft)
12.12.2025 07:47 21,8 °C 0,1 °C 53 % 93 % 1023,9 hPa 0,0 l/m² 0,0 km/h (0 Bft) SO 143 ° 0 min 0 W/m² -0,9 °C 0,1 °C 0,0 km/h (0 Bft)
12.12.2025 07:48 21,7 °C 0,1 °C 53 % 93 % 1023,9 hPa 0,0 l/m² 0,0 km/h (0 Bft) SO 143 ° 0 min 0 W/m² -0,9 °C 0,1 °C 0,0 km/h (0 Bft)
12.12.2025 07:49 21,8 °C 0,1 °C 53 % 93 % 1023,9 hPa 0,0 l/m² 0,0 km/h (0 Bft) SO 143 ° 0 min 0 W/m² -0,9 °C 0,1 °C 0,0 km/h (0 Bft)
12.12.2025 07:50 21,8 °C 0,1 °C 53 % 93 % 1023,9 hPa 0,0 l/m² 0,0 km/h (0 Bft) SO 143 ° 0 min 0 W/m² -0,9 °C 0,1 °C 0,0 km/h (0 Bft)
12.12.2025 07:51 21,8 °C 0,1 °C 53 % 93 % 1023,9 hPa 0,0 l/m² 0,0 km/h (0 Bft) SO 143 ° 0 min 0 W/m² -0,9 °C 0,1 °C 0,0 km/h (0 Bft)
12.12.2025 07:52 21,7 °C 0,1 °C 53 % 93 % 1023,8 hPa 0,0 l/m² 0,0 km/h (0 Bft) SO 144 ° 0 min 0 W/m² -0,9 °C 0,1 °C 0,0 km/h (0 Bft)
12.12.2025 07:53 21,7 °C 0,1 °C 53 % 93 % 1023,8 hPa 0,0 l/m² 0,0 km/h (0 Bft) SO 144 ° 0 min 0 W/m² -0,9 °C 0,1 °C 0,0 km/h (0 Bft)
12.12.2025 07:54 21,7 °C 0,2 °C 53 % 93 % 1023,9 hPa 0,0 l/m² 0,0 km/h (0 Bft) SO 144 ° 0 min 0 W/m² -0,8 °C 0,2 °C 0,0 km/h (0 Bft)
12.12.2025 07:55 21,7 °C 0,2 °C 53 % 93 % 1023,9 hPa 0,0 l/m² 0,0 km/h (0 Bft) SO 144 ° 0 min 0 W/m² -0,8 °C 0,2 °C 0,0 km/h (0 Bft)
12.12.2025 07:56 21,8 °C 0,2 °C 53 % 94 % 1023,9 hPa 0,0 l/m² 0,0 km/h (0 Bft) SO 144 ° 0 min 0 W/m² -0,6 °C 0,2 °C 0,0 km/h (0 Bft)
12.12.2025 07:57 21,8 °C 0,2 °C 53 % 94 % 1023,9 hPa 0,0 l/m² 0,0 km/h (0 Bft) SO 144 ° 0 min 0 W/m² -0,6 °C 0,2 °C 0,0 km/h (0 Bft)
12.12.2025 07:58 21,7 °C 0,2 °C 53 % 94 % 1023,9 hPa 0,0 l/m² 0,0 km/h (0 Bft) SO 144 ° 0 min 0 W/m² -0,6 °C 0,2 °C 0,0 km/h (0 Bft)
12.12.2025 07:59 21,7 °C 0,2 °C 53 % 94 % 1023,9 hPa 0,0 l/m² 0,0 km/h (0 Bft) SO 143 ° 0 min 0 W/m² -0,6 °C 0,2 °C 0,0 km/h (0 Bft)
12.12.2025 08:00 21,7 °C 0,2 °C 53 % 94 % 1023,9 hPa 0,0 l/m² 0,0 km/h (0 Bft) SO 144 ° 0 min 0 W/m² -0,6 °C 0,2 °C 0,0 km/h (0 Bft)
12.12.2025 08:01 21,8 °C 0,2 °C 53 % 94 % 1024,0 hPa 0,0 l/m² 0,0 km/h (0 Bft) SO 144 ° 0 min 0 W/m² -0,6 °C 0,2 °C 0,0 km/h (0 Bft)
12.12.2025 08:02 21,7 °C 0,2 °C 53 % 94 % 1024,0 hPa 0,0 l/m² 0,0 km/h (0 Bft) SO 144 ° 0 min 0 W/m² -0,6 °C 0,2 °C 0,0 km/h (0 Bft)
12.12.2025 08:03 21,7 °C 0,2 °C 53 % 93 % 1024,0 hPa 0,0 l/m² 0,0 km/h (0 Bft) SO 144 ° 0 min 0 W/m² -0,8 °C 0,2 °C 0,0 km/h (0 Bft)
12.12.2025 08:04 21,8 °C 0,2 °C 53 % 93 % 1024,0 hPa 0,0 l/m² 0,0 km/h (0 Bft) SO 144 ° 0 min 0 W/m² -0,8 °C 0,2 °C 0,0 km/h (0 Bft)
12.12.2025 08:05 21,8 °C 0,3 °C 53 % 94 % 1024,0 hPa 0,0 l/m² 0,0 km/h (0 Bft) SO 144 ° 0 min 0 W/m² -0,5 °C 0,3 °C 0,0 km/h (0 Bft)
12.12.2025 08:06 21,8 °C 0,3 °C 53 % 94 % 1023,9 hPa 0,0 l/m² 0,0 km/h (0 Bft) SO 144 ° 0 min 0 W/m² -0,5 °C 0,3 °C 0,0 km/h (0 Bft)
12.12.2025 08:07 21,7 °C 0,3 °C 53 % 94 % 1023,9 hPa 0,0 l/m² 0,0 km/h (0 Bft) SO 144 ° 0 min 0 W/m² -0,5 °C 0,3 °C 0,0 km/h (0 Bft)
12.12.2025 08:08 21,7 °C 0,3 °C 53 % 94 % 1024,0 hPa 0,0 l/m² 0,0 km/h (0 Bft) SO 144 ° 0 min 0 W/m² -0,5 °C 0,3 °C 0,0 km/h (0 Bft)
12.12.2025 08:09 21,7 °C 0,3 °C 53 % 94 % 1024,0 hPa 0,0 l/m² 0,0 km/h (0 Bft) SO 144 ° 0 min 0 W/m² -0,5 °C 0,3 °C 0,0 km/h (0 Bft)
12.12.2025 08:10 21,8 °C 0,3 °C 53 % 94 % 1023,9 hPa 0,0 l/m² 0,0 km/h (0 Bft) S 186 ° 0 min 0 W/m² -0,5 °C 0,3 °C 0,0 km/h (0 Bft)
12.12.2025 08:11 21,8 °C 0,4 °C 53 % 94 % 1024,0 hPa 0,0 l/m² 0,0 km/h (0 Bft) S-SW 193 ° 0 min 0 W/m² -0,5 °C 0,4 °C 0,0 km/h (0 Bft)
12.12.2025 08:12 21,8 °C 0,4 °C 53 % 94 % 1024,0 hPa 0,0 l/m² 0,0 km/h (0 Bft) S-SW 193 ° 0 min 0 W/m² -0,5 °C 0,4 °C 0,0 km/h (0 Bft)
12.12.2025 08:13 21,8 °C 0,4 °C 53 % 94 % 1024,0 hPa 0,0 l/m² 0,0 km/h (0 Bft) S-SW 193 ° 0 min 0 W/m² -0,5 °C 0,4 °C 0,0 km/h (0 Bft)
12.12.2025 08:14 21,8 °C 0,4 °C 53 % 94 % 1024,0 hPa 0,0 l/m² 0,0 km/h (0 Bft) S-SW 193 ° 0 min 0 W/m² -0,5 °C 0,4 °C 0,0 km/h (0 Bft)
12.12.2025 08:15 21,8 °C 0,4 °C 53 % 94 % 1024,0 hPa 0,0 l/m² 0,0 km/h (0 Bft) S-SW 193 ° 0 min 0 W/m² -0,5 °C 0,4 °C 0,0 km/h (0 Bft)
12.12.2025 08:16 21,8 °C 0,5 °C 53 % 94 % 1024,0 hPa 0,0 l/m² 0,0 km/h (0 Bft) S-SW 193 ° 0 min 0 W/m² -0,4 °C 0,5 °C 0,0 km/h (0 Bft)
12.12.2025 08:17 21,7 °C 0,5 °C 53 % 94 % 1024,0 hPa 0,0 l/m² 0,0 km/h (0 Bft) S-SW 193 ° 0 min 0 W/m² -0,4 °C 0,5 °C 0,0 km/h (0 Bft)
12.12.2025 08:18 21,8 °C 0,5 °C 53 % 94 % 1024,0 hPa 0,0 l/m² 0,0 km/h (0 Bft) S-SW 193 ° 0 min 0 W/m² -0,4 °C 0,5 °C 0,0 km/h (0 Bft)
12.12.2025 08:19 21,8 °C 0,5 °C 53 % 94 % 1024,0 hPa 0,0 l/m² 0,0 km/h (0 Bft) S-SW 193 ° 0 min 5 W/m² -0,4 °C 0,5 °C 0,0 km/h (0 Bft)
12.12.2025 08:20 21,8 °C 0,6 °C 53 % 94 % 1024,0 hPa 0,0 l/m² 0,0 km/h (0 Bft) S-SW 193 ° 0 min 0 W/m² -0,3 °C 0,6 °C 0,0 km/h (0 Bft)
12.12.2025 08:21 21,8 °C 0,6 °C 53 % 94 % 1024,0 hPa 0,0 l/m² 0,0 km/h (0 Bft) S-SW 193 ° 0 min 0 W/m² -0,3 °C 0,6 °C 0,0 km/h (0 Bft)
12.12.2025 08:22 21,8 °C 0,6 °C 53 % 94 % 1024,0 hPa 0,0 l/m² 0,0 km/h (0 Bft) S-SW 193 ° 0 min 0 W/m² -0,3 °C 0,6 °C 0,0 km/h (0 Bft)
12.12.2025 08:23 21,8 °C 0,6 °C 53 % 94 % 1024,1 hPa 0,0 l/m² 0,0 km/h (0 Bft) S-SW 193 ° 0 min 0 W/m² -0,3 °C 0,6 °C 0,0 km/h (0 Bft)
12.12.2025 08:24 21,8 °C 0,7 °C 53 % 94 % 1024,1 hPa 0,0 l/m² 0,0 km/h (0 Bft) S-SW 193 ° 0 min 5 W/m² -0,2 °C 0,7 °C 0,0 km/h (0 Bft)
12.12.2025 08:25 21,7 °C 0,7 °C 53 % 94 % 1024,0 hPa 0,0 l/m² 0,0 km/h (0 Bft) S-SW 193 ° 0 min 5 W/m² -0,2 °C 0,7 °C 0,0 km/h (0 Bft)
12.12.2025 08:26 21,8 °C 0,7 °C 53 % 94 % 1024,1 hPa 0,0 l/m² 0,0 km/h (0 Bft) S-SW 193 ° 0 min 5 W/m² -0,2 °C 0,7 °C 0,0 km/h (0 Bft)
12.12.2025 08:27 21,8 °C 0,7 °C 53 % 94 % 1024,0 hPa 0,0 l/m² 0,0 km/h (0 Bft) S-SW 193 ° 0 min 5 W/m² -0,2 °C 0,7 °C 0,0 km/h (0 Bft)
12.12.2025 08:28 21,8 °C 0,8 °C 53 % 94 % 1024,1 hPa 0,0 l/m² 0,0 km/h (0 Bft) S-SW 193 ° 0 min 5 W/m² -0,1 °C 0,8 °C 0,0 km/h (0 Bft)
12.12.2025 08:29 21,8 °C 0,8 °C 53 % 94 % 1024,1 hPa 0,0 l/m² 0,0 km/h (0 Bft) S-SW 193 ° 0 min 5 W/m² -0,1 °C 0,8 °C 0,0 km/h (0 Bft)
12.12.2025 08:30 21,8 °C 0,8 °C 53 % 94 % 1024,1 hPa 0,0 l/m² 0,0 km/h (0 Bft) S-SW 193 ° 0 min 5 W/m² -0,1 °C 0,8 °C 0,0 km/h (0 Bft)
12.12.2025 08:31 21,8 °C 0,8 °C 53 % 94 % 1024,0 hPa 0,0 l/m² 0,0 km/h (0 Bft) S-SW 193 ° 0 min 5 W/m² -0,1 °C 0,8 °C 0,0 km/h (0 Bft)
12.12.2025 08:32 21,8 °C 0,8 °C 53 % 94 % 1024,1 hPa 0,0 l/m² 0,0 km/h (0 Bft) S-SW 193 ° 0 min 5 W/m² -0,1 °C 0,8 °C 0,0 km/h (0 Bft)
12.12.2025 08:33 21,8 °C 0,9 °C 53 % 94 % 1024,1 hPa 0,0 l/m² 0,0 km/h (0 Bft) S-SW 193 ° 0 min 5 W/m² 0,0 °C 0,9 °C 0,0 km/h (0 Bft)
12.12.2025 08:34 21,8 °C 0,9 °C 53 % 94 % 1024,0 hPa 0,0 l/m² 0,0 km/h (0 Bft) S-SW 193 ° 0 min 7 W/m² 0,0 °C 0,9 °C 0,0 km/h (0 Bft)
12.12.2025 08:35 21,8 °C 0,9 °C 53 % 94 % 1024,0 hPa 0,0 l/m² 0,0 km/h (0 Bft) S-SW 193 ° 0 min 7 W/m² 0,0 °C 0,9 °C 0,0 km/h (0 Bft)
12.12.2025 08:36 21,8 °C 0,9 °C 53 % 94 % 1024,0 hPa 0,0 l/m² 0,0 km/h (0 Bft) S-SW 193 ° 0 min 7 W/m² 0,0 °C 0,9 °C 0,0 km/h (0 Bft)
12.12.2025 08:37 21,8 °C 0,9 °C 53 % 94 % 1024,0 hPa 0,0 l/m² 0,0 km/h (0 Bft) S-SW 193 ° 0 min 7 W/m² 0,0 °C 0,9 °C 0,0 km/h (0 Bft)
12.12.2025 08:38 21,8 °C 0,9 °C 53 % 94 % 1024,1 hPa 0,0 l/m² 0,0 km/h (0 Bft) S-SW 193 ° 0 min 7 W/m² 0,0 °C 0,9 °C 0,0 km/h (0 Bft)
12.12.2025 08:39 21,8 °C 0,9 °C 53 % 94 % 1024,1 hPa 0,0 l/m² 0,0 km/h (0 Bft) S-SW 193 ° 0 min 7 W/m² 0,0 °C 0,9 °C 0,0 km/h (0 Bft)
12.12.2025 08:40 21,8 °C 1,0 °C 53 % 94 % 1024,1 hPa 0,0 l/m² 0,0 km/h (0 Bft) S-SW 193 ° 0 min 7 W/m² 0,1 °C 1,0 °C 0,0 km/h (0 Bft)
12.12.2025 08:41 21,8 °C 1,1 °C 53 % 94 % 1024,1 hPa 0,0 l/m² 0,0 km/h (0 Bft) S-SW 193 ° 0 min 7 W/m² 0,2 °C 1,1 °C 0,0 km/h (0 Bft)
12.12.2025 08:42 21,8 °C 1,1 °C 53 % 94 % 1024,1 hPa 0,0 l/m² 0,0 km/h (0 Bft) S-SW 193 ° 0 min 7 W/m² 0,2 °C 1,1 °C 0,0 km/h (0 Bft)
12.12.2025 08:43 21,8 °C 1,1 °C 53 % 94 % 1024,1 hPa 0,0 l/m² 0,0 km/h (0 Bft) S-SW 193 ° 0 min 7 W/m² 0,2 °C 1,1 °C 0,0 km/h (0 Bft)
12.12.2025 08:44 21,8 °C 1,1 °C 53 % 94 % 1024,2 hPa 0,0 l/m² 0,0 km/h (0 Bft) S-SW 193 ° 0 min 7 W/m² 0,2 °C 1,1 °C 0,0 km/h (0 Bft)
12.12.2025 08:45 21,8 °C 1,1 °C 53 % 94 % 1024,1 hPa 0,0 l/m² 0,0 km/h (0 Bft) S-SW 193 ° 0 min 9 W/m² 0,2 °C 1,1 °C 0,0 km/h (0 Bft)
12.12.2025 08:46 21,8 °C 1,2 °C 53 % 94 % 1024,1 hPa 0,0 l/m² 0,0 km/h (0 Bft) S-SW 193 ° 0 min 9 W/m² 0,3 °C 1,2 °C 0,0 km/h (0 Bft)
12.12.2025 08:47 21,8 °C 1,1 °C 53 % 94 % 1024,1 hPa 0,0 l/m² 0,0 km/h (0 Bft) S-SW 193 ° 0 min 9 W/m² 0,2 °C 1,1 °C 0,0 km/h (0 Bft)
12.12.2025 08:48 21,8 °C 1,2 °C 53 % 94 % 1024,1 hPa 0,0 l/m² 0,0 km/h (0 Bft) S-SW 193 ° 0 min 9 W/m² 0,3 °C 1,2 °C 0,0 km/h (0 Bft)
12.12.2025 08:49 21,8 °C 1,2 °C 53 % 94 % 1024,0 hPa 0,0 l/m² 0,0 km/h (0 Bft) S-SW 193 ° 0 min 9 W/m² 0,3 °C 1,2 °C 0,0 km/h (0 Bft)
12.12.2025 08:50 21,8 °C 1,2 °C 53 % 94 % 1024,0 hPa 0,0 l/m² 0,0 km/h (0 Bft) S-SW 193 ° 0 min 11 W/m² 0,3 °C 1,2 °C 0,0 km/h (0 Bft)
12.12.2025 08:51 21,8 °C 1,2 °C 53 % 94 % 1024,0 hPa 0,0 l/m² 0,0 km/h (0 Bft) S-SW 193 ° 0 min 12 W/m² 0,3 °C 1,2 °C 0,0 km/h (0 Bft)
12.12.2025 08:52 21,8 °C 1,2 °C 54 % 94 % 1024,0 hPa 0,0 l/m² 0,0 km/h (0 Bft) S-SW 193 ° 0 min 16 W/m² 0,3 °C 1,2 °C 0,0 km/h (0 Bft)
12.12.2025 08:53 21,8 °C 1,3 °C 54 % 94 % 1024,1 hPa 0,0 l/m² 0,0 km/h (0 Bft) S-SW 193 ° 0 min 16 W/m² 0,4 °C 1,3 °C 0,0 km/h (0 Bft)
12.12.2025 08:54 21,8 °C 1,3 °C 54 % 94 % 1024,0 hPa 0,0 l/m² 0,0 km/h (0 Bft) S-SW 193 ° 0 min 18 W/m² 0,4 °C 1,3 °C 0,0 km/h (0 Bft)
12.12.2025 08:55 21,8 °C 1,4 °C 54 % 94 % 1024,1 hPa 0,0 l/m² 0,0 km/h (0 Bft) S-SW 193 ° 0 min 18 W/m² 0,5 °C 1,4 °C 0,0 km/h (0 Bft)
12.12.2025 08:56 21,8 °C 1,4 °C 54 % 94 % 1024,1 hPa 0,0 l/m² 0,0 km/h (0 Bft) S-SW 193 ° 0 min 19 W/m² 0,5 °C 1,4 °C 0,0 km/h (0 Bft)
12.12.2025 08:57 21,8 °C 1,4 °C 54 % 94 % 1024,1 hPa 0,0 l/m² 0,0 km/h (0 Bft) S-SW 193 ° 0 min 21 W/m² 0,5 °C 1,4 °C 0,0 km/h (0 Bft)
12.12.2025 08:58 21,8 °C 1,4 °C 54 % 94 % 1024,1 hPa 0,0 l/m² 0,0 km/h (0 Bft) S-SW 193 ° 0 min 21 W/m² 0,5 °C 1,4 °C 0,0 km/h (0 Bft)
12.12.2025 08:59 21,8 °C 1,4 °C 54 % 94 % 1024,1 hPa 0,0 l/m² 0,0 km/h (0 Bft) S-SW 193 ° 0 min 23 W/m² 0,5 °C 1,4 °C 0,0 km/h (0 Bft)
12.12.2025 09:00 21,8 °C 1,4 °C 54 % 94 % 1024,0 hPa 0,0 l/m² 0,0 km/h (0 Bft) S-SW 193 ° 0 min 23 W/m² 0,5 °C 1,4 °C 0,0 km/h (0 Bft)
12.12.2025 09:01 21,8 °C 1,5 °C 54 % 94 % 1024,0 hPa 0,0 l/m² 0,0 km/h (0 Bft) S-SW 193 ° 0 min 23 W/m² 0,6 °C 1,5 °C 0,0 km/h (0 Bft)
12.12.2025 09:03 21,8 °C 1,6 °C 54 % 94 % 1024,1 hPa 0,0 l/m² 0,0 km/h (0 Bft) S-SW 193 ° 0 min 23 W/m² 0,7 °C 1,6 °C 0,0 km/h (0 Bft)
12.12.2025 09:04 21,8 °C 1,6 °C 54 % 94 % 1024,1 hPa 0,0 l/m² 0,0 km/h (0 Bft) S-SW 193 ° 0 min 23 W/m² 0,7 °C 1,6 °C 0,0 km/h (0 Bft)
12.12.2025 09:05 21,8 °C 1,6 °C 54 % 94 % 1024,1 hPa 0,0 l/m² 0,0 km/h (0 Bft) S-SW 193 ° 0 min 23 W/m² 0,7 °C 1,6 °C 0,0 km/h (0 Bft)
12.12.2025 09:06 21,8 °C 1,7 °C 54 % 94 % 1024,1 hPa 0,0 l/m² 1,1 km/h (1 Bft) S-SW 204 ° 0 min 25 W/m² 0,8 °C 1,7 °C 6,4 km/h (2 Bft)
12.12.2025 09:08 21,8 °C 1,8 °C 54 % 94 % 1024,2 hPa 0,0 l/m² 3,9 km/h (1 Bft) SW 217 ° 0 min 26 W/m² 0,9 °C 1,8 °C 6,4 km/h (2 Bft)
12.12.2025 09:09 21,8 °C 1,8 °C 54 % 94 % 1024,2 hPa 0,0 l/m² 4,4 km/h (1 Bft) SW 219 ° 0 min 25 W/m² 0,9 °C 1,8 °C 6,4 km/h (2 Bft)
12.12.2025 09:10 21,8 °C 1,8 °C 54 % 94 % 1024,2 hPa 0,0 l/m² 3,8 km/h (1 Bft) SW 217 ° 0 min 26 W/m² 0,9 °C 1,8 °C 4,8 km/h (1 Bft)
12.12.2025 09:11 21,8 °C 1,9 °C 54 % 94 % 1024,2 hPa 0,0 l/m² 4,3 km/h (1 Bft) SW 219 ° 0 min 25 W/m² 1,0 °C 1,9 °C 4,8 km/h (1 Bft)
12.12.2025 09:13 21,8 °C 2,1 °C 54 % 94 % 1024,1 hPa 0,0 l/m² 4,2 km/h (1 Bft) SW 221 ° 0 min 25 W/m² 1,2 °C 2,1 °C 6,4 km/h (2 Bft)
12.12.2025 09:14 21,8 °C 2,1 °C 54 % 94 % 1024,1 hPa 0,0 l/m² 1,8 km/h (1 Bft) SW 221 ° 0 min 28 W/m² 1,2 °C 2,1 °C 3,2 km/h (1 Bft)
12.12.2025 09:15 21,8 °C 2,1 °C 54 % 94 % 1024,1 hPa 0,0 l/m² 0,7 km/h (0 Bft) S-SW 202 ° 0 min 26 W/m² 1,2 °C 2,1 °C 3,2 km/h (1 Bft)
12.12.2025 09:16 21,8 °C 2,2 °C 54 % 94 % 1024,1 hPa 0,0 l/m² 7,8 km/h (2 Bft) S-SW 208 ° 0 min 28 W/m² 1,3 °C 0,8 °C 9,7 km/h (2 Bft)
12.12.2025 09:17 21,8 °C 2,2 °C 54 % 94 % 1024,2 hPa 0,0 l/m² 5,9 km/h (2 Bft) SW 217 ° 0 min 28 W/m² 1,3 °C 2,2 °C 8,0 km/h (2 Bft)
12.12.2025 09:18 21,8 °C 2,3 °C 54 % 94 % 1024,2 hPa 0,0 l/m² 6,4 km/h (2 Bft) S-SW 199 ° 0 min 28 W/m² 1,4 °C 2,3 °C 8,0 km/h (2 Bft)
12.12.2025 09:19 21,8 °C 2,3 °C 54 % 94 % 1024,2 hPa 0,0 l/m² 4,4 km/h (1 Bft) SW 218 ° 0 min 28 W/m² 1,4 °C 2,3 °C 8,0 km/h (2 Bft)
12.12.2025 09:20 21,8 °C 2,4 °C 54 % 94 % 1024,2 hPa 0,0 l/m² 2,8 km/h (1 Bft) SW 218 ° 0 min 32 W/m² 1,5 °C 2,4 °C 3,2 km/h (1 Bft)
12.12.2025 09:21 21,8 °C 2,4 °C 54 % 94 % 1024,2 hPa 0,0 l/m² 0,2 km/h (0 Bft) SW 218 ° 0 min 37 W/m² 1,5 °C 2,4 °C 1,6 km/h (1 Bft)
12.12.2025 09:22 21,8 °C 2,4 °C 54 % 94 % 1024,2 hPa 0,2 l/m² 0,0 km/h (0 Bft) SW 218 ° 0 min 32 W/m² 1,5 °C 2,4 °C 0,0 km/h (0 Bft)
12.12.2025 09:23 21,8 °C 2,4 °C 53 % 94 % 1024,1 hPa 0,0 l/m² 0,0 km/h (0 Bft) SW 218 ° 0 min 33 W/m² 1,5 °C 2,4 °C 0,0 km/h (0 Bft)
12.12.2025 09:24 21,8 °C 2,5 °C 53 % 94 % 1024,1 hPa 0,0 l/m² 0,0 km/h (0 Bft) SW 218 ° 0 min 33 W/m² 1,6 °C 2,5 °C 0,0 km/h (0 Bft)
12.12.2025 09:25 21,8 °C 2,6 °C 52 % 94 % 1024,1 hPa 0,0 l/m² 5,2 km/h (1 Bft) S-SW 210 ° 0 min 33 W/m² 1,7 °C 2,6 °C 12,9 km/h (3 Bft)
12.12.2025 09:26 21,8 °C 2,6 °C 52 % 94 % 1024,1 hPa 0,0 l/m² 7,2 km/h (2 Bft) SW 215 ° 0 min 42 W/m² 1,7 °C 1,8 °C 9,7 km/h (2 Bft)
12.12.2025 09:27 21,8 °C 2,7 °C 52 % 94 % 1024,1 hPa 0,0 l/m² 8,0 km/h (2 Bft) S-SW 205 ° 0 min 42 W/m² 1,8 °C 1,2 °C 11,3 km/h (2 Bft)
12.12.2025 09:28 21,8 °C 2,7 °C 52 % 94 % 1024,1 hPa 0,0 l/m² 8,3 km/h (2 Bft) S-SW 199 ° 0 min 37 W/m² 1,8 °C 0,9 °C 11,3 km/h (2 Bft)
12.12.2025 09:29 21,8 °C 2,8 °C 51 % 94 % 1024,1 hPa 0,0 l/m² 7,5 km/h (2 Bft) S-SW 212 ° 0 min 42 W/m² 1,9 °C 1,8 °C 9,7 km/h (2 Bft)
12.12.2025 09:30 21,8 °C 2,8 °C 51 % 94 % 1024,1 hPa 0,0 l/m² 5,4 km/h (2 Bft) S-SW 211 ° 0 min 40 W/m² 1,9 °C 2,8 °C 9,7 km/h (2 Bft)
12.12.2025 09:31 21,8 °C 2,8 °C 51 % 94 % 1024,0 hPa 0,0 l/m² 8,2 km/h (2 Bft) S 188 ° 0 min 40 W/m² 1,9 °C 1,1 °C 11,3 km/h (2 Bft)
12.12.2025 09:33 21,7 °C 2,9 °C 51 % 95 % 1024,1 hPa 0,0 l/m² 7,4 km/h (2 Bft) S-SW 213 ° 0 min 40 W/m² 2,2 °C 1,9 °C 11,3 km/h (2 Bft)
12.12.2025 09:34 21,7 °C 2,9 °C 51 % 95 % 1024,1 hPa 0,0 l/m² 8,0 km/h (2 Bft) S-SW 209 ° 0 min 44 W/m² 2,2 °C 1,4 °C 9,7 km/h (2 Bft)
12.12.2025 09:35 21,7 °C 3,0 °C 51 % 94 % 1024,2 hPa 0,0 l/m² 7,2 km/h (2 Bft) S-SW 212 ° 0 min 47 W/m² 2,1 °C 2,2 °C 8,0 km/h (2 Bft)
12.12.2025 09:36 21,7 °C 3,1 °C 51 % 94 % 1024,2 hPa 0,0 l/m² 5,0 km/h (1 Bft) SW 223 ° 0 min 46 W/m² 2,2 °C 3,1 °C 6,4 km/h (2 Bft)
12.12.2025 09:38 21,7 °C 3,1 °C 51 % 94 % 1024,1 hPa 0,0 l/m² 3,0 km/h (1 Bft) SW 221 ° 0 min 46 W/m² 2,2 °C 3,1 °C 4,8 km/h (1 Bft)
12.12.2025 09:39 21,7 °C 3,2 °C 51 % 95 % 1024,1 hPa 0,0 l/m² 1,6 km/h (1 Bft) SW 221 ° 0 min 44 W/m² 2,5 °C 3,2 °C 6,4 km/h (2 Bft)
12.12.2025 09:40 21,7 °C 3,2 °C 51 % 95 % 1024,1 hPa 0,0 l/m² 3,5 km/h (1 Bft) SW 223 ° 0 min 40 W/m² 2,5 °C 3,2 °C 6,4 km/h (2 Bft)
12.12.2025 09:41 21,7 °C 3,2 °C 51 % 95 % 1024,2 hPa 0,0 l/m² 1,4 km/h (1 Bft) SW 223 ° 0 min 47 W/m² 2,5 °C 3,2 °C 4,8 km/h (1 Bft)
12.12.2025 09:42 21,7 °C 3,2 °C 51 % 95 % 1024,2 hPa 0,0 l/m² 0,0 km/h (0 Bft) SW 223 ° 0 min 46 W/m² 2,5 °C 3,2 °C 0,0 km/h (0 Bft)
12.12.2025 09:43 21,7 °C 3,2 °C 51 % 95 % 1024,2 hPa 0,0 l/m² 0,0 km/h (0 Bft) SW 223 ° 0 min 44 W/m² 2,5 °C 3,2 °C 0,0 km/h (0 Bft)
12.12.2025 09:44 21,7 °C 3,3 °C 51 % 95 % 1024,2 hPa 0,0 l/m² 0,0 km/h (0 Bft) SW 223 ° 0 min 46 W/m² 2,6 °C 3,3 °C 0,0 km/h (0 Bft)
12.12.2025 09:46 21,7 °C 3,3 °C 51 % 94 % 1024,2 hPa 0,0 l/m² 2,6 km/h (1 Bft) S-SW 209 ° 0 min 51 W/m² 2,4 °C 3,3 °C 8,0 km/h (2 Bft)
12.12.2025 09:47 21,7 °C 3,3 °C 51 % 94 % 1024,2 hPa 0,0 l/m² 5,4 km/h (2 Bft) S-SW 209 ° 0 min 49 W/m² 2,4 °C 3,3 °C 6,4 km/h (2 Bft)
12.12.2025 09:48 21,7 °C 3,3 °C 51 % 94 % 1024,2 hPa 0,0 l/m² 5,4 km/h (2 Bft) S-SW 209 ° 0 min 51 W/m² 2,4 °C 3,3 °C 6,4 km/h (2 Bft)
12.12.2025 09:49 21,7 °C 3,3 °C 51 % 94 % 1024,2 hPa 0,0 l/m² 5,2 km/h (1 Bft) S-SW 210 ° 1 min 54 W/m² 2,4 °C 3,3 °C 6,4 km/h (2 Bft)
12.12.2025 09:50 21,7 °C 3,4 °C 51 % 94 % 1024,2 hPa 0,0 l/m² 4,0 km/h (1 Bft) S-SW 210 ° 1 min 54 W/m² 2,5 °C 3,4 °C 6,4 km/h (2 Bft)
12.12.2025 09:51 21,7 °C 3,4 °C 50 % 94 % 1024,2 hPa 0,0 l/m² 4,4 km/h (1 Bft) S-SW 210 ° 1 min 54 W/m² 2,5 °C 3,4 °C 6,4 km/h (2 Bft)
12.12.2025 09:52 21,7 °C 3,4 °C 50 % 94 % 1024,2 hPa 0,0 l/m² 3,6 km/h (1 Bft) SW 217 ° 0 min 51 W/m² 2,5 °C 3,4 °C 4,8 km/h (1 Bft)
12.12.2025 09:53 21,7 °C 3,5 °C 51 % 94 % 1024,2 hPa 0,0 l/m² 6,0 km/h (2 Bft) SW 217 ° 1 min 54 W/m² 2,6 °C 3,5 °C 8,0 km/h (2 Bft)
12.12.2025 09:54 21,7 °C 3,5 °C 51 % 94 % 1024,2 hPa 0,0 l/m² 6,4 km/h (2 Bft) SW 224 ° 1 min 69 W/m² 2,6 °C 3,5 °C 9,7 km/h (2 Bft)
12.12.2025 09:55 21,7 °C 3,5 °C 51 % 95 % 1024,2 hPa 0,0 l/m² 7,4 km/h (2 Bft) SW 219 ° 1 min 65 W/m² 2,8 °C 2,6 °C 9,7 km/h (2 Bft)
12.12.2025 09:56 21,7 °C 3,6 °C 50 % 95 % 1024,2 hPa 0,0 l/m² 9,1 km/h (2 Bft) S 189 ° 1 min 62 W/m² 2,9 °C 1,2 °C 11,3 km/h (2 Bft)
12.12.2025 09:57 21,7 °C 3,6 °C 50 % 95 % 1024,2 hPa 0,0 l/m² 7,6 km/h (2 Bft) S-SW 204 ° 1 min 63 W/m² 2,9 °C 2,5 °C 9,7 km/h (2 Bft)
12.12.2025 09:58 21,7 °C 3,6 °C 50 % 95 % 1024,2 hPa 0,0 l/m² 7,3 km/h (2 Bft) SW 226 ° 1 min 74 W/m² 2,9 °C 2,8 °C 11,3 km/h (2 Bft)
12.12.2025 09:59 21,6 °C 3,6 °C 50 % 95 % 1024,2 hPa 0,0 l/m² 8,0 km/h (2 Bft) SW 223 ° 1 min 67 W/m² 2,9 °C 2,1 °C 9,7 km/h (2 Bft)
12.12.2025 10:00 21,6 °C 3,6 °C 50 % 95 % 1024,2 hPa 0,0 l/m² 7,1 km/h (2 Bft) S-SW 213 ° 1 min 72 W/m² 2,9 °C 3,0 °C 8,0 km/h (2 Bft)
12.12.2025 10:01 21,6 °C 3,7 °C 50 % 95 % 1024,2 hPa 0,0 l/m² 7,4 km/h (2 Bft) S-SW 203 ° 1 min 69 W/m² 3,0 °C 2,8 °C 9,7 km/h (2 Bft)
12.12.2025 10:02 21,6 °C 3,7 °C 50 % 94 % 1024,3 hPa 0,0 l/m² 4,7 km/h (1 Bft) SW 219 ° 1 min 67 W/m² 2,8 °C 3,7 °C 6,4 km/h (2 Bft)
12.12.2025 10:03 21,6 °C 3,7 °C 50 % 94 % 1024,3 hPa 0,0 l/m² 6,4 km/h (2 Bft) S-SW 198 ° 1 min 67 W/m² 2,8 °C 3,7 °C 8,0 km/h (2 Bft)
12.12.2025 10:04 21,7 °C 3,7 °C 50 % 94 % 1024,3 hPa 0,0 l/m² 4,9 km/h (1 Bft) S-SW 196 ° 1 min 72 W/m² 2,8 °C 3,7 °C 6,4 km/h (2 Bft)
12.12.2025 10:05 21,7 °C 3,7 °C 50 % 94 % 1024,3 hPa 0,0 l/m² 7,0 km/h (2 Bft) S-SW 195 ° 1 min 72 W/m² 2,8 °C 3,1 °C 9,7 km/h (2 Bft)
12.12.2025 10:06 21,6 °C 3,7 °C 50 % 94 % 1024,3 hPa 0,0 l/m² 7,2 km/h (2 Bft) S 177 ° 1 min 72 W/m² 2,8 °C 3,0 °C 9,7 km/h (2 Bft)
12.12.2025 10:07 21,6 °C 3,7 °C 50 % 94 % 1024,3 hPa 0,0 l/m² 5,7 km/h (2 Bft) S-SW 197 ° 1 min 77 W/m² 2,8 °C 3,7 °C 8,0 km/h (2 Bft)
12.12.2025 10:08 21,6 °C 3,7 °C 50 % 94 % 1024,3 hPa 0,0 l/m² 5,6 km/h (2 Bft) S-SW 196 ° 1 min 79 W/m² 2,8 °C 3,7 °C 6,4 km/h (2 Bft)
12.12.2025 10:09 21,6 °C 3,8 °C 50 % 94 % 1024,3 hPa 0,0 l/m² 4,6 km/h (1 Bft) S-SW 196 ° 1 min 72 W/m² 2,9 °C 3,8 °C 6,4 km/h (2 Bft)
12.12.2025 10:10 21,7 °C 3,8 °C 51 % 94 % 1024,3 hPa 0,0 l/m² 4,8 km/h (1 Bft) S-SW 196 ° 1 min 76 W/m² 2,9 °C 3,8 °C 6,4 km/h (2 Bft)
12.12.2025 10:12 21,6 °C 3,8 °C 50 % 94 % 1024,3 hPa 0,0 l/m² 5,0 km/h (1 Bft) S-SO 164 ° 2 min 72 W/m² 2,9 °C 3,8 °C 6,4 km/h (2 Bft)
12.12.2025 10:13 21,6 °C 3,8 °C 50 % 94 % 1024,3 hPa 0,0 l/m² 3,3 km/h (1 Bft) S 177 ° 1 min 74 W/m² 2,9 °C 3,8 °C 6,4 km/h (2 Bft)
12.12.2025 10:14 21,6 °C 3,8 °C 50 % 94 % 1024,3 hPa 0,0 l/m² 6,2 km/h (2 Bft) S 178 ° 1 min 81 W/m² 2,9 °C 3,8 °C 8,0 km/h (2 Bft)
12.12.2025 10:15 21,6 °C 3,8 °C 50 % 94 % 1024,2 hPa 0,0 l/m² 4,4 km/h (1 Bft) SO 143 ° 1 min 84 W/m² 2,9 °C 3,8 °C 6,4 km/h (2 Bft)
12.12.2025 10:16 21,6 °C 3,8 °C 50 % 94 % 1024,2 hPa 0,0 l/m² 3,5 km/h (1 Bft) SO 144 ° 1 min 83 W/m² 2,9 °C 3,8 °C 4,8 km/h (1 Bft)
12.12.2025 10:17 21,6 °C 3,8 °C 50 % 95 % 1024,3 hPa 0,0 l/m² 4,4 km/h (1 Bft) S 183 ° 1 min 83 W/m² 3,1 °C 3,8 °C 6,4 km/h (2 Bft)
12.12.2025 10:18 21,6 °C 3,8 °C 50 % 95 % 1024,2 hPa 0,0 l/m² 3,5 km/h (1 Bft) S 179 ° 1 min 74 W/m² 3,1 °C 3,8 °C 6,4 km/h (2 Bft)
12.12.2025 10:19 21,6 °C 3,9 °C 50 % 95 % 1024,2 hPa 0,0 l/m² 3,8 km/h (1 Bft) S 179 ° 1 min 67 W/m² 3,2 °C 3,9 °C 4,8 km/h (1 Bft)
12.12.2025 10:20 21,6 °C 3,9 °C 50 % 95 % 1024,2 hPa 0,0 l/m² 6,0 km/h (2 Bft) S 179 ° 1 min 54 W/m² 3,2 °C 3,9 °C 8,0 km/h (2 Bft)
12.12.2025 10:21 21,6 °C 3,9 °C 50 % 95 % 1024,2 hPa 0,0 l/m² 7,3 km/h (2 Bft) S 174 ° 0 min 49 W/m² 3,2 °C 3,1 °C 9,7 km/h (2 Bft)
12.12.2025 10:22 21,7 °C 3,9 °C 50 % 95 % 1024,2 hPa 0,0 l/m² 8,6 km/h (2 Bft) S 180 ° 0 min 49 W/m² 3,2 °C 1,9 °C 9,7 km/h (2 Bft)
12.12.2025 10:23 21,6 °C 3,9 °C 50 % 95 % 1024,3 hPa 0,0 l/m² 5,6 km/h (2 Bft) S-SW 196 ° 1 min 56 W/m² 3,2 °C 3,9 °C 8,0 km/h (2 Bft)
12.12.2025 10:24 21,6 °C 3,9 °C 50 % 95 % 1024,2 hPa 0,0 l/m² 6,2 km/h (2 Bft) S-SW 196 ° 1 min 65 W/m² 3,2 °C 3,9 °C 8,0 km/h (2 Bft)
12.12.2025 10:25 21,6 °C 3,9 °C 51 % 95 % 1024,3 hPa 0,0 l/m² 5,8 km/h (2 Bft) S-SW 200 ° 1 min 63 W/m² 3,2 °C 3,9 °C 8,0 km/h (2 Bft)
12.12.2025 10:26 21,6 °C 4,0 °C 51 % 95 % 1024,3 hPa 0,0 l/m² 3,9 km/h (1 Bft) S-SW 200 ° 1 min 77 W/m² 3,3 °C 4,0 °C 4,8 km/h (1 Bft)
12.12.2025 10:27 21,6 °C 4,0 °C 51 % 95 % 1024,3 hPa 0,0 l/m² 0,0 km/h (0 Bft) S 189 ° 1 min 81 W/m² 3,3 °C 4,0 °C 0,0 km/h (0 Bft)
12.12.2025 10:28 21,6 °C 4,0 °C 50 % 95 % 1024,3 hPa 0,0 l/m² 5,3 km/h (1 Bft) SO 140 ° 1 min 86 W/m² 3,3 °C 4,0 °C 6,4 km/h (2 Bft)
12.12.2025 10:29 21,6 °C 4,0 °C 50 % 95 % 1024,2 hPa 0,0 l/m² 6,5 km/h (2 Bft) SO 145 ° 1 min 98 W/m² 3,3 °C 3,9 °C 8,0 km/h (2 Bft)
12.12.2025 10:30 21,6 °C 4,0 °C 50 % 95 % 1024,3 hPa 0,0 l/m² 2,4 km/h (1 Bft) SO 142 ° 1 min 107 W/m² 3,3 °C 4,0 °C 4,8 km/h (1 Bft)
12.12.2025 10:31 21,6 °C 4,0 °C 51 % 95 % 1024,2 hPa 0,0 l/m² 0,0 km/h (0 Bft) S-SO 147 ° 1 min 120 W/m² 3,3 °C 4,0 °C 0,0 km/h (0 Bft)
12.12.2025 10:32 21,6 °C 4,1 °C 51 % 95 % 1024,3 hPa 0,0 l/m² 2,1 km/h (1 Bft) S-SO 158 ° 1 min 132 W/m² 3,4 °C 4,1 °C 4,8 km/h (1 Bft)
12.12.2025 10:33 21,6 °C 4,1 °C 51 % 95 % 1024,3 hPa 0,0 l/m² 4,5 km/h (1 Bft) S 179 ° 1 min 135 W/m² 3,4 °C 4,1 °C 8,0 km/h (2 Bft)
12.12.2025 10:34 21,6 °C 4,1 °C 51 % 95 % 1024,3 hPa 0,0 l/m² 7,4 km/h (2 Bft) S-SO 166 ° 1 min 123 W/m² 3,4 °C 3,2 °C 9,7 km/h (2 Bft)
12.12.2025 10:35 21,6 °C 4,2 °C 51 % 95 % 1024,3 hPa 0,0 l/m² 5,4 km/h (2 Bft) S-SO 159 ° 1 min 120 W/m² 3,5 °C 4,2 °C 8,0 km/h (2 Bft)
12.12.2025 10:37 21,6 °C 4,2 °C 50 % 95 % 1024,4 hPa 0,0 l/m² 7,6 km/h (2 Bft) S-SO 167 ° 2 min 114 W/m² 3,5 °C 3,1 °C 9,7 km/h (2 Bft)
12.12.2025 10:38 21,6 °C 4,2 °C 50 % 95 % 1024,4 hPa 0,0 l/m² 6,8 km/h (2 Bft) S 190 ° 1 min 105 W/m² 3,5 °C 3,8 °C 9,7 km/h (2 Bft)
12.12.2025 10:39 21,6 °C 4,2 °C 51 % 95 % 1024,3 hPa 0,0 l/m² 7,5 km/h (2 Bft) S 181 ° 1 min 107 W/m² 3,5 °C 3,2 °C 11,3 km/h (2 Bft)
12.12.2025 10:40 21,7 °C 4,2 °C 51 % 95 % 1024,4 hPa 0,0 l/m² 6,8 km/h (2 Bft) S-SW 192 ° 1 min 118 W/m² 3,5 °C 3,8 °C 9,7 km/h (2 Bft)
12.12.2025 10:41 21,7 °C 4,2 °C 51 % 95 % 1024,3 hPa 0,0 l/m² 7,2 km/h (2 Bft) S-SW 192 ° 1 min 114 W/m² 3,5 °C 3,5 °C 9,7 km/h (2 Bft)
12.12.2025 10:42 21,6 °C 4,2 °C 51 % 95 % 1024,3 hPa 0,0 l/m² 6,7 km/h (2 Bft) S-SW 201 ° 1 min 97 W/m² 3,5 °C 3,9 °C 9,7 km/h (2 Bft)
12.12.2025 10:43 21,6 °C 4,2 °C 51 % 94 % 1024,4 hPa 0,0 l/m² 6,1 km/h (2 Bft) S-SO 159 ° 1 min 83 W/m² 3,3 °C 4,2 °C 9,7 km/h (2 Bft)
12.12.2025 10:44 21,7 °C 4,2 °C 51 % 95 % 1024,3 hPa 0,0 l/m² 8,0 km/h (2 Bft) S-SO 165 ° 1 min 90 W/m² 3,5 °C 2,8 °C 9,7 km/h (2 Bft)
12.12.2025 10:45 21,7 °C 4,2 °C 51 % 95 % 1024,4 hPa 0,0 l/m² 10,3 km/h (2 Bft) S 171 ° 1 min 97 W/m² 3,5 °C 1,0 °C 12,9 km/h (3 Bft)
12.12.2025 10:46 21,6 °C 4,3 °C 51 % 95 % 1024,3 hPa 0,0 l/m² 9,1 km/h (2 Bft) S 169 ° 1 min 93 W/m² 3,6 °C 2,0 °C 11,3 km/h (2 Bft)
12.12.2025 10:47 21,6 °C 4,3 °C 51 % 95 % 1024,4 hPa 0,0 l/m² 7,8 km/h (2 Bft) S 170 ° 1 min 97 W/m² 3,6 °C 3,0 °C 9,7 km/h (2 Bft)
12.12.2025 10:48 21,7 °C 4,3 °C 51 % 95 % 1024,3 hPa 0,0 l/m² 10,3 km/h (2 Bft) S 169 ° 1 min 63 W/m² 3,6 °C 1,1 °C 14,5 km/h (3 Bft)
12.12.2025 10:49 21,7 °C 4,3 °C 51 % 95 % 1024,2 hPa 0,0 l/m² 9,2 km/h (2 Bft) S 186 ° 1 min 72 W/m² 3,6 °C 1,9 °C 11,3 km/h (2 Bft)
12.12.2025 10:50 21,7 °C 4,3 °C 51 % 95 % 1024,2 hPa 0,0 l/m² 7,6 km/h (2 Bft) S 174 ° 1 min 74 W/m² 3,6 °C 3,2 °C 9,7 km/h (2 Bft)
12.12.2025 10:51 21,7 °C 4,3 °C 51 % 95 % 1024,2 hPa 0,0 l/m² 5,6 km/h (2 Bft) SW 217 ° 1 min 77 W/m² 3,6 °C 4,3 °C 8,0 km/h (2 Bft)
12.12.2025 10:52 21,6 °C 4,4 °C 51 % 95 % 1024,2 hPa 0,0 l/m² 7,4 km/h (2 Bft) S 180 ° 1 min 79 W/m² 3,7 °C 3,5 °C 9,7 km/h (2 Bft)
12.12.2025 10:53 21,7 °C 4,4 °C 51 % 95 % 1024,2 hPa 0,0 l/m² 7,4 km/h (2 Bft) SW 215 ° 1 min 83 W/m² 3,7 °C 3,5 °C 11,3 km/h (2 Bft)
12.12.2025 10:54 21,7 °C 4,4 °C 51 % 95 % 1024,2 hPa 0,0 l/m² 10,8 km/h (2 Bft) S-SW 202 ° 1 min 97 W/m² 3,7 °C 0,8 °C 12,9 km/h (3 Bft)
12.12.2025 10:55 21,7 °C 4,4 °C 51 % 95 % 1024,2 hPa 0,0 l/m² 8,9 km/h (2 Bft) SW 215 ° 1 min 107 W/m² 3,7 °C 2,2 °C 12,9 km/h (3 Bft)
12.12.2025 10:56 21,7 °C 4,5 °C 51 % 95 % 1024,3 hPa 0,0 l/m² 10,8 km/h (2 Bft) S-SW 201 ° 1 min 91 W/m² 3,8 °C 1,0 °C 14,5 km/h (3 Bft)
12.12.2025 10:57 21,7 °C 4,5 °C 51 % 95 % 1024,2 hPa 0,0 l/m² 11,0 km/h (2 Bft) S-SW 213 ° 1 min 98 W/m² 3,8 °C 0,8 °C 12,9 km/h (3 Bft)
12.12.2025 10:58 21,6 °C 4,6 °C 51 % 95 % 1024,2 hPa 0,0 l/m² 12,2 km/h (2 Bft) SW 215 ° 1 min 104 W/m² 3,9 °C 0,2 °C 16,1 km/h (3 Bft)
12.12.2025 10:59 21,6 °C 4,6 °C 51 % 95 % 1024,2 hPa 0,0 l/m² 9,5 km/h (2 Bft) SW 217 ° 1 min 104 W/m² 3,9 °C 2,0 °C 12,9 km/h (3 Bft)
12.12.2025 11:00 21,6 °C 4,7 °C 51 % 95 % 1024,2 hPa 0,0 l/m² 11,9 km/h (2 Bft) S-SW 213 ° 1 min 100 W/m² 4,0 °C 0,5 °C 16,1 km/h (3 Bft)
12.12.2025 11:01 21,7 °C 4,7 °C 51 % 95 % 1024,2 hPa 0,0 l/m² 10,4 km/h (2 Bft) W-SW 246 ° 1 min 93 W/m² 4,0 °C 1,5 °C 17,7 km/h (3 Bft)
12.12.2025 11:03 21,7 °C 4,8 °C 51 % 95 % 1024,2 hPa 0,0 l/m² 11,2 km/h (2 Bft) SW 219 ° 2 min 105 W/m² 4,1 °C 1,0 °C 16,1 km/h (3 Bft)
12.12.2025 11:04 21,7 °C 4,8 °C 51 % 95 % 1024,2 hPa 0,0 l/m² 10,3 km/h (2 Bft) SW 232 ° 1 min 127 W/m² 4,1 °C 1,6 °C 12,9 km/h (3 Bft)
12.12.2025 11:05 21,7 °C 4,9 °C 51 % 95 % 1024,2 hPa 0,0 l/m² 12,1 km/h (2 Bft) SW 215 ° 1 min 125 W/m² 4,2 °C 0,6 °C 16,1 km/h (3 Bft)
12.12.2025 11:06 21,7 °C 4,9 °C 51 % 95 % 1024,2 hPa 0,0 l/m² 11,3 km/h (2 Bft) S-SW 200 ° 1 min 111 W/m² 4,2 °C 1,1 °C 14,5 km/h (3 Bft)
12.12.2025 11:08 21,6 °C 5,0 °C 51 % 95 % 1024,1 hPa 0,0 l/m² 8,6 km/h (2 Bft) SW 220 ° 2 min 102 W/m² 4,3 °C 3,1 °C 14,5 km/h (3 Bft)
12.12.2025 11:09 21,6 °C 5,0 °C 51 % 95 % 1024,1 hPa 0,0 l/m² 9,4 km/h (2 Bft) SW 221 ° 1 min 104 W/m² 4,3 °C 2,5 °C 12,9 km/h (3 Bft)
12.12.2025 11:10 21,7 °C 5,1 °C 51 % 95 % 1024,1 hPa 0,0 l/m² 6,2 km/h (2 Bft) SW 223 ° 1 min 104 W/m² 4,4 °C 5,1 °C 8,0 km/h (2 Bft)
12.12.2025 11:11 21,7 °C 5,1 °C 51 % 95 % 1024,2 hPa 0,0 l/m² 5,2 km/h (1 Bft) S-SW 205 ° 1 min 107 W/m² 4,4 °C 5,1 °C 8,0 km/h (2 Bft)
12.12.2025 11:13 21,7 °C 5,1 °C 51 % 95 % 1024,1 hPa 0,0 l/m² 6,0 km/h (2 Bft) SW 229 ° 2 min 98 W/m² 4,4 °C 5,1 °C 9,7 km/h (2 Bft)
12.12.2025 11:14 21,6 °C 5,1 °C 51 % 95 % 1024,1 hPa 0,0 l/m² 7,7 km/h (2 Bft) SW 226 ° 1 min 102 W/m² 4,4 °C 4,0 °C 11,3 km/h (2 Bft)
12.12.2025 11:15 21,6 °C 5,1 °C 51 % 95 % 1024,0 hPa 0,0 l/m² 7,1 km/h (2 Bft) W-SW 245 ° 1 min 98 W/m² 4,4 °C 4,5 °C 9,7 km/h (2 Bft)
12.12.2025 11:16 21,6 °C 5,2 °C 51 % 95 % 1024,1 hPa 0,0 l/m² 6,7 km/h (2 Bft) SW 219 ° 1 min 95 W/m² 4,5 °C 5,0 °C 9,7 km/h (2 Bft)
12.12.2025 11:17 21,6 °C 5,2 °C 51 % 95 % 1024,1 hPa 0,0 l/m² 9,8 km/h (2 Bft) SW 229 ° 1 min 86 W/m² 4,5 °C 2,4 °C 12,9 km/h (3 Bft)
12.12.2025 11:18 21,6 °C 5,2 °C 51 % 95 % 1024,0 hPa 0,0 l/m² 7,2 km/h (2 Bft) SW 226 ° 1 min 93 W/m² 4,5 °C 4,5 °C 9,7 km/h (2 Bft)
12.12.2025 11:19 21,6 °C 5,2 °C 51 % 95 % 1024,0 hPa 0,0 l/m² 7,3 km/h (2 Bft) SW 220 ° 1 min 104 W/m² 4,5 °C 4,4 °C 9,7 km/h (2 Bft)
12.12.2025 11:20 21,6 °C 5,2 °C 51 % 95 % 1024,1 hPa 0,0 l/m² 6,4 km/h (2 Bft) W-SW 239 ° 1 min 120 W/m² 4,5 °C 5,2 °C 9,7 km/h (2 Bft)
12.12.2025 11:21 21,6 °C 5,3 °C 51 % 95 % 1024,1 hPa 0,0 l/m² 5,8 km/h (2 Bft) SW 235 ° 1 min 128 W/m² 4,6 °C 5,3 °C 9,7 km/h (2 Bft)
12.12.2025 11:22 21,6 °C 5,2 °C 51 % 95 % 1024,0 hPa 0,0 l/m² 6,8 km/h (2 Bft) SW 232 ° 1 min 128 W/m² 4,5 °C 4,9 °C 11,3 km/h (2 Bft)
12.12.2025 11:23 21,6 °C 5,3 °C 51 % 95 % 1024,1 hPa 0,0 l/m² 4,5 km/h (1 Bft) SW 233 ° 1 min 125 W/m² 4,6 °C 5,3 °C 6,4 km/h (2 Bft)
12.12.2025 11:24 21,6 °C 5,3 °C 51 % 95 % 1024,0 hPa 0,0 l/m² 4,3 km/h (1 Bft) SW 236 ° 1 min 127 W/m² 4,6 °C 5,3 °C 6,4 km/h (2 Bft)
12.12.2025 11:25 21,6 °C 5,3 °C 51 % 95 % 1024,1 hPa 0,0 l/m² 3,3 km/h (1 Bft) SW 229 ° 1 min 127 W/m² 4,6 °C 5,3 °C 6,4 km/h (2 Bft)
12.12.2025 11:26 21,6 °C 5,3 °C 51 % 95 % 1024,1 hPa 0,0 l/m² 6,6 km/h (2 Bft) SW 220 ° 1 min 130 W/m² 4,6 °C 5,1 °C 9,7 km/h (2 Bft)
12.12.2025 11:27 21,6 °C 5,3 °C 51 % 95 % 1024,0 hPa 0,0 l/m² 5,7 km/h (2 Bft) S-SW 205 ° 1 min 130 W/m² 4,6 °C 5,3 °C 8,0 km/h (2 Bft)
12.12.2025 11:28 21,6 °C 5,3 °C 51 % 95 % 1024,0 hPa 0,0 l/m² 0,2 km/h (0 Bft) S-SW 212 ° 1 min 134 W/m² 4,6 °C 5,3 °C 3,2 km/h (1 Bft)
12.12.2025 11:29 21,6 °C 5,3 °C 51 % 95 % 1024,0 hPa 0,0 l/m² 4,2 km/h (1 Bft) S-SW 213 ° 1 min 144 W/m² 4,6 °C 5,3 °C 8,0 km/h (2 Bft)
12.12.2025 11:30 21,6 °C 5,4 °C 51 % 95 % 1024,1 hPa 0,0 l/m² 7,1 km/h (2 Bft) SW 221 ° 1 min 153 W/m² 4,7 °C 4,8 °C 11,3 km/h (2 Bft)
12.12.2025 11:31 21,6 °C 5,4 °C 51 % 95 % 1024,0 hPa 0,0 l/m² 6,0 km/h (2 Bft) SW 217 ° 1 min 156 W/m² 4,7 °C 5,4 °C 9,7 km/h (2 Bft)
12.12.2025 11:32 21,6 °C 5,4 °C 51 % 95 % 1023,9 hPa 0,0 l/m² 3,0 km/h (1 Bft) SW 220 ° 1 min 158 W/m² 4,7 °C 5,4 °C 4,8 km/h (1 Bft)
12.12.2025 11:33 21,6 °C 5,4 °C 51 % 95 % 1023,9 hPa 0,0 l/m² 7,0 km/h (2 Bft) SW 221 ° 1 min 135 W/m² 4,7 °C 4,9 °C 12,9 km/h (3 Bft)
12.12.2025 11:34 21,6 °C 5,5 °C 51 % 95 % 1023,9 hPa 0,0 l/m² 9,8 km/h (2 Bft) S-SW 205 ° 1 min 118 W/m² 4,8 °C 2,8 °C 12,9 km/h (3 Bft)
12.12.2025 11:35 21,6 °C 5,5 °C 51 % 95 % 1023,9 hPa 0,0 l/m² 9,1 km/h (2 Bft) S-SW 197 ° 1 min 105 W/m² 4,8 °C 3,3 °C 14,5 km/h (3 Bft)
12.12.2025 11:36 21,6 °C 5,5 °C 51 % 95 % 1023,9 hPa 0,0 l/m² 9,8 km/h (2 Bft) S-SW 205 ° 1 min 105 W/m² 4,8 °C 2,8 °C 12,9 km/h (3 Bft)
12.12.2025 11:37 21,6 °C 5,6 °C 51 % 95 % 1023,9 hPa 0,0 l/m² 9,3 km/h (2 Bft) S-SW 206 ° 1 min 95 W/m² 4,9 °C 3,2 °C 11,3 km/h (2 Bft)
12.12.2025 11:38 21,6 °C 5,6 °C 51 % 95 % 1023,9 hPa 0,0 l/m² 7,3 km/h (2 Bft) SW 223 ° 1 min 93 W/m² 4,9 °C 4,8 °C 11,3 km/h (2 Bft)
12.12.2025 11:39 21,6 °C 5,6 °C 51 % 95 % 1023,9 hPa 0,0 l/m² 7,8 km/h (2 Bft) SW 221 ° 1 min 100 W/m² 4,9 °C 4,4 °C 9,7 km/h (2 Bft)
12.12.2025 11:40 21,6 °C 5,6 °C 51 % 95 % 1024,0 hPa 0,0 l/m² 7,7 km/h (2 Bft) SW 215 ° 1 min 109 W/m² 4,9 °C 4,5 °C 9,7 km/h (2 Bft)
12.12.2025 11:41 21,6 °C 5,6 °C 51 % 95 % 1024,0 hPa 0,0 l/m² 8,0 km/h (2 Bft) S-SW 199 ° 1 min 107 W/m² 4,9 °C 4,2 °C 11,3 km/h (2 Bft)
12.12.2025 11:42 21,6 °C 5,7 °C 51 % 95 % 1023,9 hPa 0,0 l/m² 7,7 km/h (2 Bft) SW 225 ° 1 min 121 W/m² 5,0 °C 4,6 °C 11,3 km/h (2 Bft)
12.12.2025 11:43 21,6 °C 5,6 °C 51 % 95 % 1023,9 hPa 0,0 l/m² 10,1 km/h (2 Bft) S-SW 211 ° 1 min 121 W/m² 4,9 °C 2,7 °C 14,5 km/h (3 Bft)
12.12.2025 11:44 21,6 °C 5,7 °C 51 % 95 % 1023,8 hPa 0,0 l/m² 11,1 km/h (2 Bft) SW 224 ° 1 min 118 W/m² 5,0 °C 2,1 °C 12,9 km/h (3 Bft)
12.12.2025 11:45 21,6 °C 5,7 °C 51 % 95 % 1023,9 hPa 0,0 l/m² 10,7 km/h (2 Bft) S-SW 207 ° 1 min 130 W/m² 5,0 °C 2,4 °C 14,5 km/h (3 Bft)
12.12.2025 11:46 21,6 °C 5,7 °C 51 % 95 % 1023,8 hPa 0,0 l/m² 15,4 km/h (3 Bft) S-SW 208 ° 1 min 120 W/m² 5,0 °C -0,3 °C 19,3 km/h (3 Bft)
12.12.2025 11:47 21,6 °C 5,7 °C 51 % 95 % 1023,8 hPa 0,0 l/m² 15,8 km/h (3 Bft) S-SW 211 ° 1 min 95 W/m² 5,0 °C -0,5 °C 19,3 km/h (3 Bft)
12.12.2025 11:48 21,6 °C 5,7 °C 51 % 95 % 1023,9 hPa 0,0 l/m² 14,6 km/h (3 Bft) S-SW 212 ° 1 min 86 W/m² 5,0 °C 0,1 °C 19,3 km/h (3 Bft)
12.12.2025 11:49 21,6 °C 5,7 °C 51 % 95 % 1023,9 hPa 0,0 l/m² 11,1 km/h (2 Bft) SW 222 ° 1 min 84 W/m² 5,0 °C 2,1 °C 14,5 km/h (3 Bft)
12.12.2025 11:50 21,6 °C 5,7 °C 51 % 95 % 1023,9 hPa 0,0 l/m² 9,2 km/h (2 Bft) SW 222 ° 1 min 91 W/m² 5,0 °C 3,4 °C 12,9 km/h (3 Bft)
12.12.2025 11:51 21,6 °C 5,7 °C 51 % 95 % 1023,8 hPa 0,0 l/m² 9,9 km/h (2 Bft) SW 217 ° 1 min 91 W/m² 5,0 °C 2,9 °C 14,5 km/h (3 Bft)
12.12.2025 11:52 21,6 °C 5,7 °C 51 % 95 % 1023,9 hPa 0,0 l/m² 11,7 km/h (2 Bft) S-SW 209 ° 1 min 86 W/m² 5,0 °C 1,7 °C 14,5 km/h (3 Bft)
12.12.2025 11:53 21,6 °C 5,7 °C 51 % 95 % 1023,8 hPa 0,0 l/m² 12,3 km/h (2 Bft) SW 226 ° 1 min 84 W/m² 5,0 °C 1,4 °C 14,5 km/h (3 Bft)
12.12.2025 11:54 21,6 °C 5,7 °C 51 % 95 % 1023,8 hPa 0,0 l/m² 10,6 km/h (2 Bft) SW 224 ° 1 min 84 W/m² 5,0 °C 2,4 °C 12,9 km/h (3 Bft)
12.12.2025 11:55 21,6 °C 5,7 °C 51 % 95 % 1023,9 hPa 0,0 l/m² 9,3 km/h (2 Bft) SW 215 ° 1 min 84 W/m² 5,0 °C 3,3 °C 11,3 km/h (2 Bft)
12.12.2025 11:56 21,6 °C 5,8 °C 51 % 95 % 1023,9 hPa 0,0 l/m² 8,4 km/h (2 Bft) SW 232 ° 1 min 81 W/m² 5,1 °C 4,1 °C 11,3 km/h (2 Bft)
12.12.2025 11:57 21,6 °C 5,7 °C 51 % 95 % 1023,8 hPa 0,0 l/m² 9,7 km/h (2 Bft) SW 218 ° 1 min 84 W/m² 5,0 °C 3,1 °C 12,9 km/h (3 Bft)
12.12.2025 11:58 21,6 °C 5,8 °C 51 % 95 % 1023,9 hPa 0,0 l/m² 8,6 km/h (2 Bft) S-SW 206 ° 1 min 72 W/m² 5,1 °C 4,0 °C 12,9 km/h (3 Bft)
12.12.2025 11:59 21,6 °C 5,8 °C 51 % 95 % 1023,8 hPa 0,0 l/m² 8,7 km/h (2 Bft) SW 219 ° 1 min 58 W/m² 5,1 °C 3,9 °C 11,3 km/h (2 Bft)
12.12.2025 12:00 21,6 °C 5,7 °C 51 % 95 % 1023,9 hPa 0,0 l/m² 8,3 km/h (2 Bft) SW 226 ° 1 min 56 W/m² 5,0 °C 4,1 °C 11,3 km/h (2 Bft)
12.12.2025 12:01 21,6 °C 5,8 °C 51 % 95 % 1023,9 hPa 0,0 l/m² 6,4 km/h (2 Bft) SW 225 ° 1 min 65 W/m² 5,1 °C 5,8 °C 9,7 km/h (2 Bft)
12.12.2025 12:07 21,6 °C 5,8 °C 51 % 95 % 1023,9 hPa 0,0 l/m² 7,5 km/h (2 Bft) S-SW 193 ° 0 min 46 W/m² 5,1 °C 4,9 °C 11,3 km/h (2 Bft)
12.12.2025 12:09 21,6 °C 5,8 °C 51 % 95 % 1023,9 hPa 0,0 l/m² 11,8 km/h (2 Bft) S-SW 206 ° 2 min 54 W/m² 5,1 °C 1,8 °C 16,1 km/h (3 Bft)
12.12.2025 12:10 21,6 °C 5,8 °C 51 % 95 % 1023,9 hPa 0,0 l/m² 10,4 km/h (2 Bft) S 188 ° 1 min 69 W/m² 5,1 °C 2,7 °C 12,9 km/h (3 Bft)
_ Min-Zeit 03:47 06:43 10:38 00:22 04:24 - 10:31 - - - - 05:37 01:30 10:31
Minimum _ 21,5 °C -0,9 °C 50 % 91 % 1023,1 hPa - 0,0 km/h (0 Bft) - - - - -2,0 °C -1,5 °C 0,0 km/h (0 Bft)
_ Max-Zeit 09:31 12:10 09:22 12:10 10:47 09:22 11:47 - - 12:09 11:32 12:10 12:01 11:48
Maximum _ 21,8 °C 5,8 °C 54 % 95 % 1024,4 hPa 0,2 l/m² 15,8 km/h
S-SW (3 Bft)
- - 2 min 158 W/m² 5,1 °C 5,8 °C 19,3 km/h
SW (3 Bft)
Durchschnitt _ 21,7 °C 1,4 °C 53 % 93 % 1023,7 hPa #0,2 l/m² 2,0 km/h (1 Bft) SO - #2:13 h 20 W/m² 0,4 °C 1,1 °C 2,9 km/h (1 Bft)
© 2009 Mathias Hoßbach